MB7UIK Weather Reports


time (UTC)temp
C
wind
direction
speed
KPH
gust
KPH
rain 1hr
cm
rain 24hr
cm
rain mn
cm
humidity
%
barometer
mb
20260506124244 13 330 8.0 12.9 0.00 0.00 0.00 34 1011.9
20260506124212 13 330 8.0 12.9 0.00 0.00 0.00 34 1011.9
20260506124146 13 323 4.8 12.9 0.00 0.00 0.00 34 1011.9
20260506124045 13 345 6.4 11.3 0.00 0.00 0.00 33 1011.8
20260506123945 13 338 11.3 11.3 0.00 0.00 0.00 33 1011.9
20260506123845 13 341 8.0 8.0 0.00 0.00 0.00 32 1011.8
20260506123745 13 355 6.4 11.3 0.00 0.00 0.00 31 1011.8
20260506123712 13 355 6.4 11.3 0.00 0.00 0.00 31 1011.8
20260506123644 13 330 8.0 11.3 0.00 0.00 0.00 31 1011.8
20260506123544 13 341 8.0 9.7 0.00 0.00 0.00 31 1011.8
20260506123444 13 329 4.8 9.7 0.00 0.00 0.00 31 1011.8
20260506123344 13 348 8.0 9.7 0.00 0.00 0.00 31 1011.8
20260506123244 13 9 4.8 12.9 0.00 0.00 0.00 31 1011.8
20260506123212 13 9 4.8 12.9 0.00 0.00 0.00 31 1011.8
20260506123146 13 319 6.4 12.9 0.00 0.00 0.00 31 1011.8
20260506123046 13 340 9.7 11.3 0.00 0.00 0.00 30 1011.8
20260506122945 13 321 6.4 9.7 0.00 0.00 0.00 30 1011.7
20260506122844 13 355 8.0 8.0 0.00 0.00 0.00 30 1011.8
20260506122744 13 338 4.8 9.7 0.00 0.00 0.00 30 1011.8
20260506122712 13 338 4.8 9.7 0.00 0.00 0.00 30 1011.8
20260506122644 13 9 4.8 9.7 0.00 0.00 0.00 30 1011.8
20260506122544 13 34 4.8 9.7 0.00 0.00 0.00 30 1011.8
20260506122444 13 348 6.4 9.7 0.00 0.00 0.00 30 1011.8
20260506122344 13 338 8.0 9.7 0.00 0.00 0.00 30 1011.8
20260506122244 13 346 4.8 11.3 0.00 0.00 0.00 31 1011.8
20260506122212 13 346 4.8 11.3 0.00 0.00 0.00 31 1011.8
20260506122144 13 348 4.8 11.3 0.00 0.00 0.00 30 1011.8
20260506122045 13 11 6.4 8.0 0.00 0.00 0.00 29 1011.9
20260506121945 13 327 3.2 8.0 0.00 0.00 0.00 29 1011.8
20260506121845 13 342 4.8 8.0 0.00 0.00 0.00 29 1011.8
20260506121746 13 355 11.3 11.3 0.00 0.00 0.00 29 1011.9
20260506121712 13 355 11.3 11.3 0.00 0.00 0.00 29 1011.9
20260506121645 13 5 6.4 8.0 0.00 0.00 0.00 28 1011.8
20260506121545 13 339 4.8 8.0 0.00 0.00 0.00 28 1011.8
20260506121445 13 343 6.4 8.0 0.00 0.00 0.00 28 1011.8
20260506121345 13 19 4.8 4.8 0.00 0.00 0.00 27 1011.7
20260506121245 13 346 4.8 6.4 0.00 0.00 0.00 27 1011.8
20260506121211 13 346 4.8 6.4 0.00 0.00 0.00 27 1011.8
20260506121144 13 334 3.2 6.4 0.00 0.00 0.00 26 1011.7
20260506121045 13 355 4.8 6.4 0.00 0.00 0.00 26 1011.8
20260506120945 13 327 3.2 6.4 0.00 0.00 0.00 25 1011.8
20260506120845 13 38 4.8 6.4 0.00 0.00 0.00 25 1011.8
20260506120745 13 15 4.8 8.0 0.00 0.00 0.00 24 1011.8
20260506120713 13 15 4.8 8.0 0.00 0.00 0.00 24 1011.8
20260506120645 13 9 4.8 6.4 0.00 0.00 0.00 24 1011.8
20260506120547 13 355 1.6 6.4 0.00 0.00 0.00 24 1011.9
20260506120446 13 16 4.8 6.4 0.00 0.00 0.00 25 1011.9
20260506120346 13 24 3.2 6.4 0.00 0.00 0.00 25 1011.8
20260506120245 13 350 6.4 8.0 0.00 0.00 0.00 25 1011.8
20260506120212 13 350 6.4 8.0 0.00 0.00 0.00 25 1011.8
20260506120145 13 347 6.4 8.0 0.00 0.00 0.00 25 1011.8
20260506120045 13 355 4.8 8.0 0.00 0.00 0.00 26 1011.8
20260506115945 13 302 8.0 8.0 0.00 0.00 0.00 26 1011.9
20260506115845 13 24 4.8 6.4 0.00 0.00 0.00 26 1011.9
20260506115745 13 325 3.2 6.4 0.00 0.00 0.00 26 1011.9
20260506115711 13 325 3.2 6.4 0.00 0.00 0.00 26 1011.9
20260506115645 13 340 4.8 6.4 0.00 0.00 0.00 26 1011.9
20260506115545 13 5 4.8 6.4 0.00 0.00 0.00 25 1011.9
20260506115445 13 26 4.8 6.4 0.00 0.00 0.00 25 1011.8
20260506115345 13 345 4.8 6.4 0.00 0.00 0.00 25 1011.8
20260506115245 13 355 3.2 11.3 0.00 0.00 0.00 25 1011.9
20260506115213 13 355 3.2 11.3 0.00 0.00 0.00 25 1011.9
20260506115145 13 338 6.4 11.3 0.00 0.00 0.00 25 1011.9
20260506115046 13 324 4.8 11.3 0.00 0.00 0.00 24 1011.9
20260506114946 13 360 8.0 11.3 0.00 0.00 0.00 24 1012.0
20260506114846 13 329 4.8 11.3 0.00 0.00 0.00 24 1011.9
20260506114746 13 355 3.2 9.7 0.00 0.00 0.00 24 1012.0
20260506114712 13 355 3.2 9.7 0.00 0.00 0.00 24 1012.0
20260506114644 13 351 8.0 9.7 0.00 0.00 0.00 23 1012.0
20260506114544 13 19 4.8 9.7 0.00 0.00 0.00 23 1011.9
20260506114445 12 13 4.8 8.0 0.00 0.00 0.00 23 1012.0
20260506114345 12 348 4.8 6.4 0.00 0.00 0.00 24 1011.9
20260506114245 12 339 4.8 14.5 0.00 0.00 0.00 24 1012.0
20260506114213 12 339 4.8 14.5 0.00 0.00 0.00 24 1012.0
20260506114145 12 62 9.7 14.5 0.00 0.00 0.00 24 1012.0
20260506114045 12 34 8.0 14.5 0.00 0.00 0.00 24 1011.9
20260506113946 12 5 4.8 8.0 0.00 0.00 0.00 25 1012.0
20260506113846 12 9 4.8 6.4 0.00 0.00 0.00 25 1011.9
20260506113746 12 9 4.8 12.9 0.00 0.00 0.00 26 1011.9
20260506113712 12 9 4.8 12.9 0.00 0.00 0.00 26 1011.9
20260506113646 12 332 8.0 12.9 0.00 0.00 0.00 26 1011.9
20260506113546 13 343 4.8 12.9 0.00 0.00 0.00 27 1012.0
20260506113445 13 343 8.0 12.9 0.00 0.00 0.00 26 1012.0
20260506113345 13 22 8.0 8.0 0.00 0.00 0.00 27 1012.0
20260506113245 13 342 4.8 12.9 0.00 0.00 0.00 26 1012.0
20260506113212 13 342 4.8 12.9 0.00 0.00 0.00 26 1012.0
20260506113144 13 16 8.0 12.9 0.00 0.00 0.00 26 1011.8
20260506113044 13 336 6.4 12.9 0.00 0.00 0.00 26 1011.9
20260506112944 13 360 8.0 12.9 0.00 0.00 0.00 26 1011.9
20260506112845 13 5 8.0 8.0 0.00 0.00 0.00 27 1011.9
20260506112745 13 348 4.8 14.5 0.00 0.00 0.00 27 1011.9
20260506112713 13 348 4.8 14.5 0.00 0.00 0.00 27 1011.9
20260506112645 13 360 8.0 14.5 0.00 0.00 0.00 27 1011.8
20260506112545 13 5 9.7 14.5 0.00 0.00 0.00 28 1011.9
20260506112446 13 25 6.4 12.9 0.00 0.00 0.00 28 1011.9
20260506112346 13 360 12.9 12.9 0.00 0.00 0.00 28 1011.9
20260506112245 13 350 4.8 11.3 0.00 0.00 0.00 28 1011.9
20260506112213 13 350 4.8 11.3 0.00 0.00 0.00 28 1011.9
20260506112145 13 23 4.8 8.0 0.00 0.00 0.00 28 1011.9
20260506112045 13 5 3.2 8.0 0.00 0.00 0.00 29 1011.9
20260506111945 13 338 3.2 8.0 0.00 0.00 0.00 29 1011.8
20260506111844 13 355 4.8 8.0 0.00 0.00 0.00 30 1011.9
20260506111744 13 355 4.8 14.5 0.00 0.00 0.00 30 1011.9
20260506111712 13 355 4.8 14.5 0.00 0.00 0.00 30 1011.9
20260506111644 13 335 4.8 14.5 0.00 0.00 0.00 30 1011.9
20260506111544 13 355 8.0 14.5 0.00 0.00 0.00 30 1011.8
20260506111444 13 5 9.7 14.5 0.00 0.00 0.00 30 1011.8
20260506111344 13 355 6.4 14.5 0.00 0.00 0.00 29 1011.9
20260506111245 13 308 4.8 12.9 0.00 0.00 0.00 29 1011.8
20260506111213 13 308 4.8 12.9 0.00 0.00 0.00 29 1011.8
20260506111145 13 328 4.8 12.9 0.00 0.00 0.00 29 1011.8
20260506111045 13 360 4.8 8.0 0.00 0.00 0.00 29 1011.8
20260506110945 13 312 3.2 8.0 0.00 0.00 0.00 29 1011.8
20260506110845 13 333 4.8 8.0 0.00 0.00 0.00 29 1011.8
20260506110745 13 360 4.8 14.5 0.00 0.00 0.00 30 1011.7
20260506110712 13 360 4.8 14.5 0.00 0.00 0.00 30 1011.7
20260506110646 13 15 4.8 14.5 0.00 0.00 0.00 29 1011.8
20260506110546 13 16 4.8 14.5 0.00 0.00 0.00 29 1011.8
20260506110446 13 336 4.8 14.5 0.00 0.00 0.00 29 1011.8
20260506110346 13 327 9.7 9.7 0.00 0.00 0.00 29 1011.7
20260506110245 13 5 3.2 16.1 0.00 0.00 0.00 28 1011.7
20260506110211 13 5 3.2 16.1 0.00 0.00 0.00 28 1011.7
20260506110145 13 341 4.8 16.1 0.00 0.00 0.00 29 1011.8
20260506110045 13 342 4.8 16.1 0.00 0.00 0.00 28 1011.7
20260506105945 13 338 14.5 16.1 0.00 0.00 0.00 26 1011.7
20260506105844 13 330 6.4 6.4 0.00 0.00 0.00 26 1011.7
20260506105744 13 323 4.8 11.3 0.00 0.00 0.00 26 1011.7
20260506105712 13 323 4.8 11.3 0.00 0.00 0.00 26 1011.7
20260506105646 13 276 4.8 8.0 0.00 0.00 0.00 26 1011.7
20260506105546 13 277 3.2 8.0 0.00 0.00 0.00 27 1011.7
20260506105445 13 342 3.2 8.0 0.00 0.00 0.00 27 1011.7
20260506105345 13 334 4.8 8.0 0.00 0.00 0.00 26 1011.8
20260506105245 13 5 3.2 8.0 0.00 0.00 0.00 27 1011.7
20260506105213 13 5 3.2 8.0 0.00 0.00 0.00 27 1011.7
20260506105146 13 327 4.8 8.0 0.00 0.00 0.00 27 1011.8
20260506105046 13 342 3.2 8.0 0.00 0.00 0.00 27 1011.8
20260506104946 13 350 3.2 8.0 0.00 0.00 0.00 28 1011.8
20260506104846 13 5 4.8 8.0 0.00 0.00 0.00 28 1011.8
20260506104745 13 321 3.2 11.3 0.00 0.00 0.00 29 1011.8
20260506104711 13 321 3.2 11.3 0.00 0.00 0.00 29 1011.8
20260506104645 13 337 4.8 11.3 0.00 0.00 0.00 30 1011.8
20260506104545 13 360 4.8 11.3 0.00 0.00 0.00 30 1011.8
20260506104446 13 333 4.8 11.3 0.00 0.00 0.00 30 1011.8
20260506104346 13 342 6.4 11.3 0.00 0.00 0.00 31 1011.9
20260506104246 13 355 4.8 12.9 0.00 0.00 0.00 30 1011.9
20260506104212 13 355 4.8 12.9 0.00 0.00 0.00 30 1011.9
20260506104144 13 22 9.7 12.9 0.00 0.00 0.00 30 1011.8
20260506104044 13 348 4.8 9.7 0.00 0.00 0.00 29 1011.9
20260506103945 13 344 9.7 9.7 0.00 0.00 0.00 29 1011.9
20260506103845 13 355 3.2 9.7 0.00 0.00 0.00 30 1011.9
20260506103746 13 355 6.4 16.1 0.00 0.00 0.00 30 1011.9
20260506103712 13 355 6.4 16.1 0.00 0.00 0.00 30 1011.9
20260506103646 13 339 8.0 16.1 0.00 0.00 0.00 30 1011.9
20260506103546 13 355 12.9 16.1 0.00 0.00 0.00 29 1011.9
20260506103446 13 279 4.8 14.5 0.00 0.00 0.00 29 1011.8
20260506103345 13 360 4.8 12.9 0.00 0.00 0.00 28 1011.8
20260506103245 13 321 8.0 14.5 0.00 0.00 0.00 28 1011.8
20260506103213 13 321 8.0 14.5 0.00 0.00 0.00 28 1011.8
20260506103144 13 11 8.0 9.7 0.00 0.00 0.00 27 1011.8
20260506103044 13 329 4.8 8.0 0.00 0.00 0.00 27 1011.8
20260506102944 13 248 3.2 8.0 0.00 0.00 0.00 27 1011.8
20260506102845 13 360 3.2 8.0 0.00 0.00 0.00 27 1011.8
20260506102745 13 340 9.7 16.1 0.00 0.00 0.00 27 1011.8
20260506102711 13 340 9.7 16.1 0.00 0.00 0.00 27 1011.8
20260506102645 13 9 4.8 16.1 0.00 0.00 0.00 26 1011.9
20260506102545 13 30 9.7 12.9 0.00 0.00 0.00 26 1011.8
20260506102445 13 308 4.8 12.9 0.00 0.00 0.00 26 1011.9
20260506102346 13 11 9.7 11.3 0.00 0.00 0.00 26 1011.8
20260506102246 13 319 9.7 14.5 0.00 0.00 0.00 25 1011.8
20260506102212 13 319 9.7 14.5 0.00 0.00 0.00 25 1011.8
20260506102146 13 346 8.0 12.9 0.00 0.00 0.00 25 1011.8
20260506102046 13 348 11.3 12.9 0.00 0.00 0.00 25 1011.8
20260506101946 13 338 6.4 12.9 0.00 0.00 0.00 25 1011.8
20260506101846 13 336 9.7 11.3 0.00 0.00 0.00 25 1011.9
20260506101745 13 22 4.8 11.3 0.00 0.00 0.00 24 1011.9
20260506101713 13 22 4.8 11.3 0.00 0.00 0.00 24 1011.9
20260506101644 13 335 4.8 11.3 0.00 0.00 0.00 23 1011.9
20260506101544 13 13 6.4 11.3 0.00 0.00 0.00 23 1012.0
20260506101444 13 32 4.8 11.3 0.00 0.00 0.00 23 1011.9
20260506101344 13 346 9.7 11.3 0.00 0.00 0.00 22 1011.9
20260506101244 13 328 9.7 14.5 0.00 0.00 0.00 22 1011.9
20260506101211 13 328 9.7 14.5 0.00 0.00 0.00 22 1011.9
20260506101145 13 335 6.4 14.5 0.00 0.00 0.00 22 1011.9
20260506101045 13 348 8.0 14.5 0.00 0.00 0.00 22 1011.9
20260506100945 13 350 8.0 14.5 0.00 0.00 0.00 22 1011.8
20260506100845 13 327 9.7 9.7 0.00 0.00 0.00 24 1011.9
20260506100745 13 18 6.4 11.3 0.00 0.00 0.00 24 1011.9
20260506100713 13 18 6.4 11.3 0.00 0.00 0.00 24 1011.9
20260506100645 13 46 11.3 11.3 0.00 0.00 0.00 24 1011.9
20260506100545 13 348 8.0 9.7 0.00 0.00 0.00 25 1011.9
20260506100446 13 331 9.7 9.7 0.00 0.00 0.00 24 1011.9
20260506100346 13 351 9.7 9.7 0.00 0.00 0.00 25 1011.8
20260506100246 13 332 8.0 14.5 0.00 0.00 0.00 25 1011.8
20260506100211 13 332 8.0 14.5 0.00 0.00 0.00 25 1011.8
20260506100145 13 340 11.3 14.5 0.00 0.00 0.00 26 1011.8
20260506100045 13 360 11.3 12.9 0.00 0.00 0.00 26 1011.8
20260506095945 13 5 4.8 12.9 0.00 0.00 0.00 26 1011.8
20260506095845 13 10 11.3 11.3 0.00 0.00 0.00 25 1011.9
20260506095745 13 336 6.4 11.3 0.00 0.00 0.00 23 1011.9
20260506095713 13 336 6.4 11.3 0.00 0.00 0.00 23 1011.9
20260506095645 13 331 6.4 8.0 0.00 0.00 0.00 22 1011.8
20260506095545 13 311 8.0 8.0 0.00 0.00 0.00 22 1011.8
20260506095445 13 12 6.4 6.4 0.00 0.00 0.00 23 1011.8
20260506095345 13 360 3.2 4.8 0.00 0.00 0.00 23 1011.8
20260506095245 13 355 3.2 16.1 0.00 0.00 0.00 24 1011.8
20260506095213 13 355 3.2 16.1 0.00 0.00 0.00 24 1011.8
20260506095145 13 342 11.3 16.1 0.00 0.00 0.00 24 1011.8
20260506095045 13 342 6.4 16.1 0.00 0.00 0.00 24 1011.8
20260506094946 13 317 4.8 16.1 0.00 0.00 0.00 24 1011.8
20260506094846 13 333 16.1 16.1 0.00 0.00 0.00 24 1011.8
20260506094745 13 22 4.8 20.9 0.00 0.00 0.00 25 1011.8
20260506094711 13 22 4.8 20.9 0.00 0.00 0.00 25 1011.8
20260506094645 13 337 11.3 20.9 0.00 0.00 0.00 26 1011.8
20260506094545 13 32 8.0 20.9 0.00 0.00 0.00 26 1011.8
20260506094445 13 54 8.0 16.1 0.00 0.00 0.00 26 1011.8
20260506094345 13 349 6.4 16.1 0.00 0.00 0.00 26 1011.8
20260506094246 13 16 4.8 17.7 0.00 0.00 0.00 26 1011.8
20260506094212 13 16 4.8 17.7 0.00 0.00 0.00 26 1011.8
20260506094146 13 13 12.9 17.7 0.00 0.00 0.00 26 1011.8
20260506094046 13 334 12.9 17.7 0.00 0.00 0.00 26 1011.9
20260506093945 13 344 16.1 16.1 0.00 0.00 0.00 26 1011.8
20260506093846 13 313 11.3 12.9 0.00 0.00 0.00 26 1011.8
20260506093745 13 350 14.5 16.1 0.00 0.00 0.00 25 1011.8
20260506093711 13 350 14.5 16.1 0.00 0.00 0.00 25 1011.8
20260506093645 13 342 8.0 16.1 0.00 0.00 0.00 25 1011.8
20260506093545 13 348 12.9 16.1 0.00 0.00 0.00 24 1011.7
20260506093445 13 32 4.8 16.1 0.00 0.00 0.00 24 1011.7
20260506093344 13 360 4.8 16.1 0.00 0.00 0.00 23 1011.7
20260506093244 13 346 4.8 14.5 0.00 0.00 0.00 23 1011.8
20260506093212 13 346 4.8 14.5 0.00 0.00 0.00 23 1011.8
20260506093146 13 336 9.7 14.5 0.00 0.00 0.00 23 1011.7
20260506093046 13 9 9.7 14.5 0.00 0.00 0.00 22 1011.8
20260506092946 13 313 9.7 12.9 0.00 0.00 0.00 21 1011.8
20260506092845 13 351 12.9 12.9 0.00 0.00 0.00 20 1011.8
20260506092745 13 32 6.4 16.1 0.00 0.00 0.00 19 1011.8
20260506092711 13 32 6.4 16.1 0.00 0.00 0.00 19 1011.8
20260506092645 13 351 6.4 16.1 0.00 0.00 0.00 19 1011.7
20260506092545 13 336 12.9 16.1 0.00 0.00 0.00 20 1011.7
20260506092445 13 351 4.8 16.1 0.00 0.00 0.00 20 1011.8
20260506092346 13 360 12.9 12.9 0.00 0.00 0.00 20 1011.7
20260506092246 13 24 8.0 17.7 0.00 0.00 0.00 19 1011.8
20260506092212 13 24 8.0 17.7 0.00 0.00 0.00 19 1011.8
20260506092146 13 311 8.0 17.7 0.00 0.00 0.00 19 1011.8
20260506092045 13 348 9.7 17.7 0.00 0.00 0.00 17 1011.8
20260506091945 13 340 12.9 17.7 0.00 0.00 0.00 15 1011.8
20260506091844 13 28 12.9 17.7 0.00 0.00 0.00 13 1011.8
20260506091744 13 345 19.3 19.3 0.00 0.00 0.00 10 1011.8
20260506091712 13 345 19.3 19.3 0.00 0.00 0.00 10 1011.8
20260506091646 13 18 11.3 17.7 0.00 0.00 0.00 10 1011.7
20260506091545 13 19 6.4 17.7 0.00 0.00 0.00 9 1011.8
20260506091445 13 17 16.1 17.7 0.00 0.00 0.00 4 1011.8
20260506091345 13 351 6.4 11.3 0.00 0.00 0.00 3 1011.8
20260506091245 13 317 16.1 16.1 0.00 0.00 0.00 3 1011.7
20260506091213 13 317 16.1 16.1 0.00 0.00 0.00 3 1011.7
20260506091145 13 61 4.8 11.3 0.00 0.00 0.00 3 1011.7
20260506091045 13 349 9.7 11.3 0.00 0.00 0.00 2 1011.7
20260506090945 12 355 3.2 11.3 0.00 0.00 0.00 1 1011.7
20260506090845 12 18 6.4 11.3 0.00 0.00 0.00 100 1011.7
20260506090746 12 10 8.0 16.1 0.00 0.00 0.00 100 1011.7
20260506090712 12 10 8.0 16.1 0.00 0.00 0.00 100 1011.7
20260506090645 12 344 6.4 16.1 0.00 0.00 0.00 100 1011.7
20260506090545 12 329 9.7 16.1 0.00 0.00 0.00 100 1011.7
20260506090444 12 51 6.4 16.1 0.00 0.00 0.00 100 1011.7
20260506090344 12 360 8.0 16.1 0.00 0.00 0.00 100 1011.7
20260506090244 12 331 11.3 17.7 0.00 0.00 0.00 100 1011.7
20260506090212 12 331 11.3 17.7 0.00 0.00 0.00 100 1011.7
20260506090146 12 350 6.4 17.7 0.00 0.00 0.00 100 1011.7
20260506090045 12 15 4.8 17.7 0.00 0.00 0.00 100 1011.8
20260506085945 12 9 14.5 17.7 0.00 0.00 0.00 100 1011.7
20260506085845 12 318 8.0 14.5 0.00 0.00 0.00 100 1011.7
20260506085745 12 360 6.4 16.1 0.00 0.00 0.00 100 1011.7
20260506085713 12 360 6.4 16.1 0.00 0.00 0.00 100 1011.7
20260506085644 12 40 4.8 16.1 0.00 0.00 0.00 100 1011.7
20260506085544 12 15 11.3 16.1 0.00 0.00 0.00 100 1011.6
20260506085444 11 9 8.0 11.3 0.00 0.00 0.00 100 1011.6
20260506085344 11 360 6.4 11.3 0.00 0.00 0.00 100 1011.7
20260506085244 11 319 6.4 14.5 0.00 0.00 0.00 100 1011.7
20260506085212 11 319 6.4 14.5 0.00 0.00 0.00 100 1011.7
20260506085144 11 334 4.8 11.3 0.00 0.00 0.00 100 1011.6
20260506085044 11 317 6.4 11.3 0.00 0.00 0.00 100 1011.6
20260506084944 11 346 6.4 6.4 0.00 0.00 0.00 100 1011.6
20260506084845 11 313 3.2 6.4 0.00 0.00 0.00 100 1011.6
20260506084745 11 351 6.4 12.9 0.00 0.00 0.00 100 1011.6
20260506084712 11 351 6.4 12.9 0.00 0.00 0.00 100 1011.6
20260506084644 11 340 9.7 12.9 0.00 0.00 0.00 100 1011.6
20260506084546 11 312 8.0 12.9 0.00 0.00 0.00 100 1011.6
20260506084445 11 345 12.9 12.9 0.00 0.00 0.00 100 1011.6
20260506084345 11 340 6.4 12.9 0.00 0.00 0.00 100 1011.5
20260506084245 12 318 6.4 16.1 0.00 0.00 0.00 100 1011.6
20260506084213 12 318 6.4 16.1 0.00 0.00 0.00 100 1011.6
20260506084145 12 324 6.4 14.5 0.00 0.00 0.00 100 1011.6
20260506084045 12 340 6.4 14.5 0.00 0.00 0.00 100 1011.5
20260506083945 12 320 6.4 11.3 0.00 0.00 0.00 100 1011.5
20260506083845 12 344 6.4 11.3 0.00 0.00 0.00 100 1011.5
20260506083745 12 355 11.3 16.1 0.00 0.00 0.00 100 1011.4
20260506083711 12 355 11.3 16.1 0.00 0.00 0.00 100 1011.4
20260506083645 12 9 6.4 16.1 0.00 0.00 0.00 100 1011.5
20260506083544 12 331 4.8 16.1 0.00 0.00 0.00 100 1011.5
20260506083444 12 336 14.5 16.1 0.00 0.00 0.00 100 1011.5
20260506083346 12 321 4.8 11.3 0.00 0.00 0.00 100 1011.5
20260506083246 12 360 8.0 14.5 0.00 0.00 0.00 100 1011.4
20260506083213 12 360 8.0 14.5 0.00 0.00 0.00 100 1011.4
20260506083144 12 350 8.0 14.5 0.00 0.00 0.00 100 1011.4
20260506083044 12 29 12.9 14.5 0.00 0.00 0.00 100 1011.4
20260506082944 12 350 9.7 14.5 0.00 0.00 0.00 100 1011.4
20260506082844 12 304 6.4 9.7 0.00 0.00 0.00 100 1011.5
20260506082744 12 328 8.0 16.1 0.00 0.00 0.00 100 1011.4
20260506082712 12 328 8.0 16.1 0.00 0.00 0.00 100 1011.4
20260506082646 12 9 11.3 16.1 0.00 0.00 0.00 100 1011.5
20260506082546 12 333 12.9 16.1 0.00 0.00 0.00 100 1011.5
20260506082446 12 24 9.7 16.1 0.00 0.00 0.00 100 1011.4
20260506082346 12 330 4.8 11.3 0.00 0.00 0.00 100 1011.5
20260506082246 12 311 8.0 16.1 0.00 0.00 0.00 100 1011.5
20260506082212 12 311 8.0 16.1 0.00 0.00 0.00 100 1011.5
20260506082145 12 333 6.4 16.1 0.00 0.00 0.00 100 1011.5
20260506082045 12 323 8.0 16.1 0.00 0.00 0.00 100 1011.5
20260506081945 12 346 4.8 16.1 0.00 0.00 0.00 100 1011.5
20260506081845 12 328 9.7 16.1 0.00 0.00 0.00 100 1011.5
20260506081745 12 349 8.0 19.3 0.00 0.00 0.00 100 1011.5
20260506081711 12 349 8.0 19.3 0.00 0.00 0.00 100 1011.5
20260506081645 12 18 6.4 17.7 0.00 0.00 0.00 100 1011.6
20260506081545 12 11 12.9 16.1 0.00 0.00 0.00 100 1011.6
20260506081445 12 355 14.5 16.1 0.00 0.00 0.00 100 1011.5
20260506081345 12 26 11.3 16.1 0.00 0.00 0.00 100 1011.5
20260506081245 12 336 6.4 12.9 0.00 0.00 0.00 100 1011.6
20260506081213 12 336 6.4 12.9 0.00 0.00 0.00 100 1011.6
20260506081145 12 340 9.7 12.9 0.00 0.00 0.00 100 1011.5
20260506081045 12 355 8.0 12.9 0.00 0.00 0.00 100 1011.5
20260506080946 12 306 6.4 12.9 0.00 0.00 0.00 100 1011.6
20260506080846 11 341 9.7 12.9 0.00 0.00 0.00 100 1011.6
20260506080745 12 32 6.4 20.9 0.00 0.00 0.00 100 1011.5
20260506080711 12 32 6.4 20.9 0.00 0.00 0.00 100 1011.5
20260506080645 12 11 8.0 20.9 0.00 0.00 0.00 100 1011.6
20260506080545 12 341 17.7 20.9 0.00 0.00 0.00 100 1011.5
20260506080445 12 325 16.1 17.7 0.00 0.00 0.00 100 1011.5
20260506080345 12 351 9.7 16.1 0.00 0.00 0.00 100 1011.5
20260506080245 12 10 9.7 16.1 0.00 0.00 0.00 100 1011.5
20260506080211 12 10 9.7 16.1 0.00 0.00 0.00 100 1011.5
20260506080145 12 299 9.7 16.1 0.00 0.00 0.00 100 1011.5
20260506073446 11 331 1.6 9.7 0.00 0.00 0.00 100 1011.5
20260506073346 11 345 4.8 6.4 0.00 0.00 0.00 100 1011.4
20260506073246 11 323 4.8 16.1 0.00 0.00 0.00 100 1011.4
20260506073213 11 323 4.8 16.1 0.00 0.00 0.00 100 1011.4
20260506073144 11 346 8.0 16.1 0.00 0.00 0.00 100 1011.4
20260506073044 11 20 4.8 14.5 0.00 0.00 0.00 100 1011.5
20260506072945 11 333 6.4 12.9 0.00 0.00 0.00 100 1011.4
20260506072845 11 21 4.8 8.0 0.00 0.00 0.00 100 1011.4
20260506072745 11 26 6.4 14.5 0.00 0.00 0.00 100 1011.4
20260506072713 11 26 6.4 14.5 0.00 0.00 0.00 100 1011.4
20260506072644 11 318 4.8 14.5 0.00 0.00 0.00 100 1011.4
20260506072545 11 337 8.0 14.5 0.00 0.00 0.00 100 1011.4
20260506072445 11 15 14.5 14.5 0.00 0.00 0.00 100 1011.4
20260506072345 11 331 8.0 11.3 0.00 0.00 0.00 100 1011.4
20260506072245 11 355 12.9 16.1 0.00 0.00 0.00 100 1011.4
20260506072211 11 355 12.9 16.1 0.00 0.00 0.00 100 1011.4
20260506072144 11 327 4.8 16.1 0.00 0.00 0.00 100 1011.4
20260506072044 11 360 11.3 16.1 0.00 0.00 0.00 100 1011.4
20260506071944 11 336 8.0 16.1 0.00 0.00 0.00 100 1011.4
20260506071846 11 5 12.9 12.9 0.00 0.00 0.00 100 1011.4
20260506071745 11 13 4.8 16.1 0.00 0.00 0.00 100 1011.4
20260506071711 11 13 4.8 16.1 0.00 0.00 0.00 100 1011.4
20260506071645 11 9 6.4 16.1 0.00 0.00 0.00 100 1011.4
20260506071545 11 329 4.8 16.1 0.00 0.00 0.00 100 1011.4
20260506071445 11 360 16.1 16.1 0.00 0.00 0.00 100 1011.4
20260506071346 11 317 4.8 9.7 0.00 0.00 0.00 100 1011.4
20260506071245 11 11 8.0 19.3 0.00 0.00 0.00 100 1011.4
20260506071211 11 11 8.0 19.3 0.00 0.00 0.00 100 1011.4
20260506071145 11 323 11.3 19.3 0.00 0.00 0.00 100 1011.4
20260506071045 11 15 11.3 16.1 0.00 0.00 0.00 100 1011.3
20260506070945 11 276 8.0 12.9 0.00 0.00 0.00 100 1011.4
20260506070844 11 350 11.3 11.3 0.00 0.00 0.00 100 1011.4
20260506070744 11 9 6.4 12.9 0.00 0.00 0.00 100 1011.4
20260506070712 11 9 6.4 12.9 0.00 0.00 0.00 100 1011.4
20260506070644 11 333 4.8 12.9 0.00 0.00 0.00 100 1011.4
20260506070546 11 342 4.8 12.9 0.00 0.00 0.00 100 1011.5
20260506070445 11 341 6.4 12.9 0.00 0.00 0.00 100 1011.4
20260506070345 11 347 11.3 12.9 0.00 0.00 0.00 100 1011.4
20260506070245 11 55 8.0 16.1 0.00 0.00 0.00 100 1011.4
20260506070213 11 55 8.0 16.1 0.00 0.00 0.00 100 1011.4
20260506070144 11 346 9.7 16.1 0.00 0.00 0.00 100 1011.4
20260506062444 10 348 4.8 6.4 0.00 0.00 0.00 100 1011.3
20260506062344 10 336 4.8 4.8 0.00 0.00 0.00 100 1011.3
20260506062246 10 311 4.8 14.5 0.00 0.00 0.00 100 1011.3
20260506062212 10 311 4.8 14.5 0.00 0.00 0.00 100 1011.3
20260506062146 10 355 6.4 14.5 0.00 0.00 0.00 100 1011.3
20260506062045 10 325 4.8 14.5 0.00 0.00 0.00 100 1011.3
20260506061945 10 338 8.0 14.5 0.00 0.00 0.00 100 1011.3
20260506061845 10 15 4.8 14.5 0.00 0.00 0.00 100 1011.3
20260506061744 10 342 12.9 14.5 0.00 0.00 0.00 100 1011.3
20260506061712 10 342 12.9 14.5 0.00 0.00 0.00 100 1011.3
20260506061644 10 344 6.4 8.0 0.00 0.00 0.00 100 1011.3
20260506061546 10 342 6.4 8.0 0.00 0.00 0.00 100 1011.3
20260506061445 10 290 4.8 8.0 0.00 0.00 0.00 100 1011.3
20260506061345 10 348 4.8 6.4 0.00 0.00 0.00 100 1011.3
20260506061245 10 355 4.8 11.3 0.00 0.00 0.00 100 1011.3
20260506061213 10 355 4.8 11.3 0.00 0.00 0.00 100 1011.3
20260506061145 10 329 3.2 11.3 0.00 0.00 0.00 100 1011.3
20260506061045 10 346 3.2 11.3 0.00 0.00 0.00 100 1011.3
20260506060945 10 351 4.8 11.3 0.00 0.00 0.00 100 1011.2
20260506060845 10 331 4.8 11.3 0.00 0.00 0.00 100 1011.2
20260506060745 10 348 6.4 11.3 0.00 0.00 0.00 100 1011.2
20260506060713 10 348 6.4 11.3 0.00 0.00 0.00 100 1011.2
20260506060644 10 334 11.3 11.3 0.00 0.00 0.00 100 1011.2
20260506060544 10 348 4.8 9.7 0.00 0.00 0.00 100 1011.2
20260506060444 9 12 8.0 9.7 0.00 0.00 0.00 100 1011.2
20260506060344 9 344 3.2 6.4 0.00 0.00 0.00 100 1011.1
20260506060244 9 346 8.0 14.5 0.00 0.00 0.00 100 1011.1
20260506060212 9 346 8.0 14.5 0.00 0.00 0.00 100 1011.1
20260506060146 9 343 4.8 12.9 0.00 0.00 0.00 100 1011.2
20260506051345 9 355 4.8 4.8 0.00 0.00 0.00 100 1011.1
20260506051244 9 15 1.6 9.7 0.00 0.00 0.00 100 1011.1
20260506051212 9 15 1.6 9.7 0.00 0.00 0.00 100 1011.1
20260506051144 9 350 3.2 9.7 0.00 0.00 0.00 100 1011.1
20260506051044 9 25 4.8 9.7 0.00 0.00 0.00 100 1011.1
20260506050945 9 355 4.8 4.8 0.00 0.00 0.00 100 1011.1
20260506050845 9 304 1.6 4.8 0.00 0.00 0.00 100 1011.1
20260506050745 9 316 3.2 6.4 0.00 0.00 0.00 100 1011.1
20260506050713 9 316 3.2 6.4 0.00 0.00 0.00 100 1011.1
20260506050645 9 320 4.8 4.8 0.00 0.00 0.00 100 1011.1
20260506050545 9 323 3.2 4.8 0.00 0.00 0.00 100 1011.1
20260506050445 9 360 3.2 4.8 0.00 0.00 0.00 100 1011.1
20260506050345 9 19 3.2 3.2 0.00 0.00 0.00 100 1011.1
20260506050245 9 275 0.0 4.8 0.00 0.00 0.00 100 1011.0
20260506050212 9 275 0.0 4.8 0.00 0.00 0.00 100 1011.0
20260506050144 9 275 1.6 4.8 0.00 0.00 0.00 100 1011.0
20260506045045 10 341 3.2 4.8 0.00 0.00 0.00 100 1010.9
20260506044945 10 305 1.6 4.8 0.00 0.00 0.00 100 1010.9
20260506044845 10 334 3.2 3.2 0.00 0.00 0.00 100 1010.9
20260506044745 10 315 4.8 6.4 0.00 0.00 0.00 100 1010.9
20260506044711 10 315 4.8 6.4 0.00 0.00 0.00 100 1010.9
20260506044645 10 333 3.2 6.4 0.00 0.00 0.00 100 1010.9
20260506044545 10 328 4.8 6.4 0.00 0.00 0.00 100 1010.9
20260506044445 10 347 3.2 6.4 0.00 0.00 0.00 100 1010.9
20260506044344 10 344 3.2 6.4 0.00 0.00 0.00 100 1010.9
20260506044245 10 5 1.6 6.4 0.00 0.00 0.00 100 1010.9
20260506044211 10 5 1.6 6.4 0.00 0.00 0.00 100 1010.9
20260506044145 10 331 4.8 6.4 0.00 0.00 0.00 100 1010.9
20260506044045 10 360 4.8 6.4 0.00 0.00 0.00 100 1010.8
20260506043945 10 325 1.6 4.8 0.00 0.00 0.00 100 1010.8
20260506043846 10 350 1.6 4.8 0.00 0.00 0.00 100 1010.8
20260506043746 10 20 3.2 4.8 0.00 0.00 0.00 100 1010.8
20260506043712 10 20 3.2 4.8 0.00 0.00 0.00 100 1010.8
20260506043646 10 331 1.6 4.8 0.00 0.00 0.00 100 1010.8
20260506043546 10 331 3.2 4.8 0.00 0.00 0.00 100 1010.8
20260506043446 10 336 4.8 4.8 0.00 0.00 0.00 100 1010.9
20260506043345 10 348 3.2 4.8 0.00 0.00 0.00 100 1010.8
20260506043245 10 5 3.2 6.4 0.00 0.00 0.00 100 1010.9
20260506043212 10 5 3.2 6.4 0.00 0.00 0.00 100 1010.9
20260506043145 10 355 3.2 6.4 0.00 0.00 0.00 100 1010.9
20260506043045 10 360 3.2 6.4 0.00 0.00 0.00 100 1010.8
20260506042945 10 9 0.0 6.4 0.00 0.00 0.00 100 1010.9
20260506042845 10 329 6.4 6.4 0.00 0.00 0.00 100 1010.9
20260506042745 10 324 4.8 4.8 0.00 0.00 0.00 100 1010.9
20260506042711 10 324 4.8 4.8 0.00 0.00 0.00 100 1010.9
20260506042645 10 347 0.0 4.8 0.00 0.00 0.00 100 1010.9
20260506042546 10 346 4.8 4.8 0.00 0.00 0.00 100 1011.0
20260506042446 10 327 3.2 4.8 0.00 0.00 0.00 100 1010.9
20260506042346 10 286 1.6 1.6 0.00 0.00 0.00 100 1011.0
20260506042246 10 286 1.6 4.8 0.00 0.00 0.00 100 1010.9
20260506042212 10 286 1.6 4.8 0.00 0.00 0.00 100 1010.9
20260506042145 10 286 1.6 4.8 0.00 0.00 0.00 100 1010.9
20260506042045 10 286 0.0 4.8 0.00 0.00 0.00 100 1010.9
20260506041945 10 303 1.6 4.8 0.00 0.00 0.00 100 1010.8
20260506041845 10 316 1.6 3.2 0.00 0.00 0.00 100 1010.9
20260506041746 10 300 1.6 4.8 0.00 0.00 0.00 100 1010.9
20260506041711 10 300 1.6 4.8 0.00 0.00 0.00 100 1010.9
20260506041645 10 296 3.2 3.2 0.00 0.00 0.00 100 1010.9
20260506041544 10 288 0.0 3.2 0.00 0.00 0.00 100 1010.8
20260506041444 10 288 1.6 3.2 0.00 0.00 0.00 100 1010.9
20260506041345 10 296 1.6 3.2 0.00 0.00 0.00 100 1010.9
20260506041245 10 273 3.2 4.8 0.00 0.00 0.00 100 1010.8
20260506041213 10 273 3.2 4.8 0.00 0.00 0.00 100 1010.8
20260506041145 10 265 3.2 4.8 0.00 0.00 0.00 100 1010.9
20260506041045 10 231 4.8 4.8 0.00 0.00 0.00 100 1010.9
20260506040944 10 279 1.6 3.2 0.00 0.00 0.00 100 1010.9
20260506040844 10 329 0.0 1.6 0.00 0.00 0.00 100 1010.9
20260506040745 10 321 1.6 3.2 0.00 0.00 0.00 100 1010.9
20260506040711 10 321 1.6 3.2 0.00 0.00 0.00 100 1010.9
20260506040645 10 319 0.0 3.2 0.00 0.00 0.00 100 1010.8
20260506040545 10 319 0.0 3.2 0.00 0.00 0.00 100 1010.9
20260506040445 10 319 1.6 3.2 0.00 0.00 0.00 100 1010.8
20260506040345 10 319 0.0 3.2 0.00 0.00 0.00 100 1010.8
20260506040245 10 307 3.2 4.8 0.00 0.00 0.00 100 1010.9
20260506040211 10 307 3.2 4.8 0.00 0.00 0.00 100 1010.9
20260506040146 10 325 4.8 4.8 0.00 0.00 0.00 100 1010.9
20260506040045 10 293 1.6 3.2 0.00 0.00 0.00 100 1010.9
20260506035945 10 330 0.0 1.6 0.00 0.00 0.00 100 1010.9
20260506035845 10 331 0.0 1.6 0.00 0.00 0.00 100 1010.9
20260506035746 10 331 3.2 4.8 0.00 0.00 0.00 100 1010.9
20260506035711 10 331 3.2 4.8 0.00 0.00 0.00 100 1010.9
20260506035645 10 342 3.2 4.8 0.00 0.00 0.00 100 1010.9
20260506035545 10 336 1.6 4.8 0.00 0.00 0.00 100 1010.9
20260506035445 10 322 0.0 4.8 0.00 0.00 0.00 100 1010.9
20260506035345 10 275 0.0 4.8 0.00 0.00 0.00 100 1010.9
20260506035244 10 275 4.8 4.8 0.00 0.00 0.00 100 1011.0
20260506035212 10 275 4.8 4.8 0.00 0.00 0.00 100 1011.0
20260506035146 10 313 1.6 4.8 0.00 0.00 0.00 100 1011.0
20260506035046 10 268 1.6 4.8 0.00 0.00 0.00 100 1010.9
20260506034946 10 290 1.6 1.6 0.00 0.00 0.00 100 1011.0
20260506034845 10 290 0.0 0.0 0.00 0.00 0.00 100 1011.0
20260506034745 10 290 0.0 4.8 0.00 0.00 0.00 100 1010.9
20260506034713 10 290 0.0 4.8 0.00 0.00 0.00 100 1010.9
20260506034644 10 290 3.2 4.8 0.00 0.00 0.00 100 1011.0
20260506034544 10 339 1.6 4.8 0.00 0.00 0.00 100 1010.9
20260506034444 10 293 1.6 4.8 0.00 0.00 0.00 100 1011.0
20260506034344 10 298 0.0 3.2 0.00 0.00 0.00 100 1011.0
20260506034244 10 329 3.2 4.8 0.00 0.00 0.00 100 1011.0
20260506034212 10 329 3.2 4.8 0.00 0.00 0.00 100 1011.0
20260506034144 10 323 3.2 4.8 0.00 0.00 0.00 100 1011.0
20260506034044 10 311 1.6 4.8 0.00 0.00 0.00 100 1011.0
20260506033944 10 291 4.8 4.8 0.00 0.00 0.00 100 1011.0
20260506033844 10 323 1.6 3.2 0.00 0.00 0.00 100 1011.0
20260506033744 10 341 0.0 8.0 0.00 0.00 0.00 100 1011.0
20260506033712 10 341 0.0 8.0 0.00 0.00 0.00 100 1011.0
20260506033646 10 341 0.0 8.0 0.00 0.00 0.00 100 1011.1
20260506033545 10 341 0.0 8.0 0.00 0.00 0.00 100 1011.0
20260506033445 10 349 1.6 8.0 0.00 0.00 0.00 100 1011.1
20260506033346 10 336 4.8 8.0 0.00 0.00 0.00 100 1011.0
20260506033246 10 321 8.0 8.0 0.00 0.00 0.00 100 1011.0
20260506033211 10 321 8.0 8.0 0.00 0.00 0.00 100 1011.0
20260506033145 10 299 1.6 4.8 0.00 0.00 0.00 100 1011.0
20260506033044 10 322 3.2 4.8 0.00 0.00 0.00 100 1011.0
20260506032946 10 296 1.6 3.2 0.00 0.00 0.00 100 1011.0
20260506032845 10 305 0.0 1.6 0.00 0.00 0.00 100 1011.0
20260506032745 11 326 3.2 6.4 0.00 0.00 0.00 100 1011.0
20260506032711 11 326 3.2 6.4 0.00 0.00 0.00 100 1011.0
20260506032645 11 340 1.6 6.4 0.00 0.00 0.00 100 1011.0
20260506032545 11 9 4.8 6.4 0.00 0.00 0.00 100 1011.0
20260506032445 11 309 4.8 6.4 0.00 0.00 0.00 100 1011.0
20260506032345 11 323 1.6 4.8 0.00 0.00 0.00 100 1011.1
20260506032245 11 302 4.8 9.7 0.00 0.00 0.00 100 1011.1
20260506032213 11 302 4.8 9.7 0.00 0.00 0.00 100 1011.1
20260506032145 11 300 1.6 8.0 0.00 0.00 0.00 100 1011.1
20260506032045 11 300 3.2 8.0 0.00 0.00 0.00 100 1011.1
20260506031945 11 286 3.2 8.0 0.00 0.00 0.00 100 1011.0
20260506031845 11 273 8.0 8.0 0.00 0.00 0.00 100 1011.0
20260506031746 11 327 4.8 4.8 0.00 0.00 0.00 100 1011.0
20260506031712 11 327 4.8 4.8 0.00 0.00 0.00 100 1011.0
20260506031645 11 340 0.0 4.8 0.00 0.00 0.00 100 1011.1
20260506031545 11 298 1.6 3.2 0.00 0.00 0.00 100 1011.0
20260506031445 11 303 1.6 3.2 0.00 0.00 0.00 100 1011.0
20260506031345 11 303 1.6 3.2 0.00 0.00 0.00 100 1011.0
20260506031245 11 303 3.2 4.8 0.00 0.00 0.00 100 1011.0
20260506031211 11 303 3.2 4.8 0.00 0.00 0.00 100 1011.0
20260506031145 11 336 4.8 4.8 0.00 0.00 0.00 100 1011.0
20260506031045 11 360 4.8 4.8 0.00 0.00 0.00 100 1011.0
20260506030945 11 289 4.8 4.8 0.00 0.00 0.00 100 1011.0
20260506030845 11 302 1.6 1.6 0.00 0.00 0.00 100 1011.0
20260506030745 11 286 0.0 4.8 0.00 0.00 0.00 100 1011.1
20260506030713 11 286 0.0 4.8 0.00 0.00 0.00 100 1011.1
20260506030645 11 286 0.0 4.8 0.00 0.00 0.00 100 1011.0
20260506030545 11 286 3.2 4.8 0.00 0.00 0.00 100 1011.0
20260506030446 11 346 1.6 4.8 0.00 0.00 0.00 100 1011.1
20260506030346 11 13 0.0 3.2 0.00 0.00 0.00 100 1011.1
20260506030246 11 348 3.2 4.8 0.00 0.00 0.00 100 1011.1
20260506030212 11 348 3.2 4.8 0.00 0.00 0.00 100 1011.1
20260506030145 11 321 3.2 4.8 0.00 0.00 0.00 100 1011.1
20260506030045 11 342 4.8 4.8 0.00 0.00 0.00 100 1011.1
20260506025944 11 332 1.6 4.8 0.00 0.00 0.00 100 1011.1
20260506025844 11 276 3.2 4.8 0.00 0.00 0.00 100 1011.2
20260506025744 11 303 4.8 11.3 0.00 0.00 0.00 100 1011.2
20260506025712 11 303 4.8 11.3 0.00 0.00 0.00 100 1011.2
20260506025644 11 250 1.6 4.8 0.00 0.00 0.00 100 1011.2
20260506025544 11 290 0.0 1.6 0.00 0.00 0.00 100 1011.2
20260506025444 11 290 0.0 1.6 0.00 0.00 0.00 100 1011.2
20260506025346 11 290 0.0 1.6 0.00 0.00 0.00 100 1011.2
20260506025246 11 290 0.0 4.8 0.00 0.00 0.00 100 1011.2
20260506025212 11 290 0.0 4.8 0.00 0.00 0.00 100 1011.2
20260506025146 11 290 0.0 4.8 0.00 0.00 0.00 100 1011.2
20260506025046 11 290 0.0 4.8 0.00 0.00 0.00 100 1011.2
20260506024946 11 287 4.8 4.8 0.00 0.00 0.00 100 1011.2
20260506024846 11 296 0.0 0.0 0.00 0.00 0.00 100 1011.2
20260506024746 11 296 1.6 3.2 0.00 0.00 0.00 100 1011.2
20260506024712 11 296 1.6 3.2 0.00 0.00 0.00 100 1011.2
20260506024645 11 326 1.6 3.2 0.00 0.00 0.00 100 1011.2
20260506024545 11 326 0.0 3.2 0.00 0.00 0.00 100 1011.2
20260506024445 11 302 1.6 3.2 0.00 0.00 0.00 100 1011.2
20260506024345 11 318 3.2 3.2 0.00 0.00 0.00 100 1011.2
20260506024245 11 332 3.2 4.8 0.00 0.00 0.00 100 1011.2
20260506024213 11 332 3.2 4.8 0.00 0.00 0.00 100 1011.2
20260506024145 11 331 3.2 4.8 0.00 0.00 0.00 100 1011.3
20260506024045 11 333 3.2 4.8 0.00 0.00 0.00 100 1011.2
20260506023946 11 342 1.6 4.8 0.00 0.00 0.00 100 1011.2
20260506023846 11 327 3.2 4.8 0.00 0.00 0.00 100 1011.2
20260506023746 11 333 4.8 8.0 0.00 0.00 0.00 100 1011.2
20260506023712 11 333 4.8 8.0 0.00 0.00 0.00 100 1011.2
20260506023646 11 5 4.8 8.0 0.00 0.00 0.00 100 1011.3
20260506023546 11 329 4.8 8.0 0.00 0.00 0.00 100 1011.3
20260506023445 11 34 1.6 8.0 0.00 0.00 0.00 100 1011.2
20260506023346 11 20 3.2 8.0 0.00 0.00 0.00 100 1011.3
20260506023245 11 346 3.2 4.8 0.00 0.00 0.00 100 1011.3
20260506023211 11 346 3.2 4.8 0.00 0.00 0.00 100 1011.3
20260506023145 11 340 3.2 4.8 0.00 0.00 0.00 100 1011.3
20260506023044 11 329 4.8 4.8 0.00 0.00 0.00 100 1011.3
20260506022944 11 337 3.2 4.8 0.00 0.00 0.00 100 1011.3
20260506022844 11 15 3.2 4.8 0.00 0.00 0.00 100 1011.3
20260506022744 11 9 4.8 6.4 0.00 0.00 0.00 100 1011.3
20260506022712 11 9 4.8 6.4 0.00 0.00 0.00 100 1011.3
20260506022646 11 12 3.2 4.8 0.00 0.00 0.00 100 1011.3
20260506022546 11 351 3.2 4.8 0.00 0.00 0.00 100 1011.3
20260506022446 11 341 3.2 4.8 0.00 0.00 0.00 100 1011.3
20260506022346 11 350 4.8 4.8 0.00 0.00 0.00 100 1011.3
20260506022246 11 350 3.2 6.4 0.00 0.00 0.00 100 1011.3
20260506022212 11 350 3.2 6.4 0.00 0.00 0.00 100 1011.3
20260506022146 11 333 1.6 6.4 0.00 0.00 0.00 100 1011.4
20260506022046 11 337 3.2 6.4 0.00 0.00 0.00 100 1011.3
20260506021946 11 342 1.6 6.4 0.00 0.00 0.00 100 1011.3
20260506021846 11 9 6.4 6.4 0.00 0.00 0.00 100 1011.4
20260506021746 11 334 4.8 8.0 0.00 0.00 0.00 100 1011.4
20260506021712 11 334 4.8 8.0 0.00 0.00 0.00 100 1011.4
20260506021645 11 346 8.0 8.0 0.00 0.00 0.00 100 1011.4
20260506021545 11 355 4.8 8.0 0.00 0.00 0.00 100 1011.4
20260506021445 11 332 8.0 8.0 0.00 0.00 0.00 100 1011.4
20260506021345 11 344 4.8 4.8 0.00 0.00 0.00 100 1011.3
20260506021245 11 347 4.8 6.4 0.00 0.00 0.00 100 1011.3
20260506021213 11 347 4.8 6.4 0.00 0.00 0.00 100 1011.3
20260506021145 11 327 1.6 6.4 0.00 0.00 0.00 100 1011.4
20260506021045 11 11 4.8 4.8 0.00 0.00 0.00 100 1011.3
20260506020944 11 13 4.8 4.8 0.00 0.00 0.00 100 1011.3
20260506020846 11 332 3.2 4.8 0.00 0.00 0.00 100 1011.3
20260506020745 11 9 3.2 11.3 0.00 0.00 0.00 100 1011.3
20260506020711 11 9 3.2 11.3 0.00 0.00 0.00 100 1011.3
20260506020645 11 5 4.8 11.3 0.00 0.00 0.00 100 1011.3
20260506020545 11 338 4.8 11.3 0.00 0.00 0.00 100 1011.3
20260506020446 11 329 8.0 8.0 0.00 0.00 0.00 100 1011.4
20260506020345 11 340 6.4 6.4 0.00 0.00 0.00 100 1011.4
20260506020245 11 344 4.8 6.4 0.00 0.00 0.00 100 1011.3
20260506020212 11 344 4.8 6.4 0.00 0.00 0.00 100 1011.3
20260506020146 11 33 4.8 6.4 0.00 0.00 0.00 100 1011.4
20260506020046 11 347 6.4 6.4 0.00 0.00 0.00 100 1011.4
20260506015946 11 355 3.2 4.8 0.00 0.00 0.00 100 1011.4
20260506015846 11 339 4.8 4.8 0.00 0.00 0.00 100 1011.4
20260506015746 11 339 6.4 11.3 0.00 0.00 0.00 100 1011.4
20260506015712 11 339 6.4 11.3 0.00 0.00 0.00 100 1011.4
20260506015646 11 37 4.8 4.8 0.00 0.00 0.00 100 1011.4
20260506015546 11 340 3.2 4.8 0.00 0.00 0.00 100 1011.4
20260506015446 11 338 3.2 4.8 0.00 0.00 0.00 100 1011.4
20260506015346 11 11 3.2 4.8 0.00 0.00 0.00 100 1011.4
20260506015246 11 9 4.8 4.8 0.00 0.00 0.00 100 1011.4
20260506015211 11 9 4.8 4.8 0.00 0.00 0.00 100 1011.4
20260506015145 11 355 4.8 4.8 0.00 0.00 0.00 100 1011.4
20260506015044 11 349 4.8 4.8 0.00 0.00 0.00 100 1011.4
20260506014944 11 349 1.6 3.2 0.00 0.00 0.00 100 1011.4
20260506014844 11 338 1.6 3.2 0.00 0.00 0.00 100 1011.4
20260506014744 11 342 3.2 8.0 0.00 0.00 0.00 100 1011.4
20260506014712 11 342 3.2 8.0 0.00 0.00 0.00 100 1011.4
20260506014646 11 337 4.8 8.0 0.00 0.00 0.00 100 1011.4
20260506014546 11 5 4.8 8.0 0.00 0.00 0.00 100 1011.4
20260506014446 11 350 4.8 8.0 0.00 0.00 0.00 100 1011.4
20260506014345 11 317 4.8 8.0 0.00 0.00 0.00 100 1011.4
20260506014245 11 348 3.2 8.0 0.00 0.00 0.00 100 1011.4
20260506014213 11 348 3.2 8.0 0.00 0.00 0.00 100 1011.4
20260506014144 11 328 4.8 8.0 0.00 0.00 0.00 100 1011.5
20260506014044 11 307 3.2 8.0 0.00 0.00 0.00 100 1011.4
20260506013944 11 339 8.0 8.0 0.00 0.00 0.00 100 1011.4
20260506013844 11 325 3.2 3.2 0.00 0.00 0.00 100 1011.4
20260506013745 11 346 3.2 8.0 0.00 0.00 0.00 100 1011.5
20260506013711 11 346 3.2 8.0 0.00 0.00 0.00 100 1011.5
20260506013645 11 355 3.2 6.4 0.00 0.00 0.00 100 1011.4
20260506013545 11 316 4.8 6.4 0.00 0.00 0.00 100 1011.4
20260506013445 11 360 4.8 6.4 0.00 0.00 0.00 100 1011.4
20260506013345 11 346 4.8 4.8 0.00 0.00 0.00 100 1011.4
20260506013244 11 355 4.8 8.0 0.00 0.00 0.00 100 1011.4
20260506013213 11 355 4.8 8.0 0.00 0.00 0.00 100 1011.4
20260506013145 11 355 1.6 8.0 0.00 0.00 0.00 100 1011.4
20260506013046 11 344 3.2 8.0 0.00 0.00 0.00 100 1011.5
20260506012946 11 355 4.8 8.0 0.00 0.00 0.00 100 1011.5
20260506012846 11 20 8.0 8.0 0.00 0.00 0.00 100 1011.5
20260506012745 11 21 11.3 11.3 0.00 0.00 0.00 100 1011.5
20260506012711 11 21 11.3 11.3 0.00 0.00 0.00 100 1011.5
20260506012644 11 355 3.2 4.8 0.00 0.00 0.00 100 1011.4
20260506012544 11 360 4.8 4.8 0.00 0.00 0.00 100 1011.5
20260506012444 11 5 3.2 4.8 0.00 0.00 0.00 100 1011.5
20260506012344 11 325 4.8 4.8 0.00 0.00 0.00 100 1011.5
20260506012244 11 355 3.2 6.4 0.00 0.00 0.00 100 1011.5
20260506012212 11 355 3.2 6.4 0.00 0.00 0.00 100 1011.5
20260506012146 11 339 4.8 6.4 0.00 0.00 0.00 100 1011.5
20260506012045 11 309 4.8 6.4 0.00 0.00 0.00 100 1011.5
20260506011945 11 360 4.8 6.4 0.00 0.00 0.00 100 1011.4
20260506011845 11 346 3.2 6.4 0.00 0.00 0.00 100 1011.4
20260506011745 11 17 6.4 8.0 0.00 0.00 0.00 100 1011.4
20260506011712 11 17 6.4 8.0 0.00 0.00 0.00 100 1011.4
20260506011645 11 339 6.4 8.0 0.00 0.00 0.00 100 1011.5
20260506011545 11 329 3.2 8.0 0.00 0.00 0.00 100 1011.4
20260506011444 11 305 4.8 8.0 0.00 0.00 0.00 100 1011.5
20260506011344 11 350 4.8 4.8 0.00 0.00 0.00 100 1011.5
20260506011244 11 340 3.2 6.4 0.00 0.00 0.00 100 1011.5
20260506011212 11 340 3.2 6.4 0.00 0.00 0.00 100 1011.5
20260506011144 11 347 4.8 4.8 0.00 0.00 0.00 100 1011.4
20260506011044 11 350 0.0 4.8 0.00 0.00 0.00 100 1011.5
20260506010944 11 344 4.8 4.8 0.00 0.00 0.00 100 1011.5
20260506010846 11 355 3.2 4.8 0.00 0.00 0.00 100 1011.5
20260506010746 11 12 4.8 8.0 0.00 0.00 0.00 100 1011.5
20260506010712 11 12 4.8 8.0 0.00 0.00 0.00 100 1011.5
20260506010645 11 338 1.6 8.0 0.00 0.00 0.00 100 1011.5
20260506010545 11 37 4.8 8.0 0.00 0.00 0.00 100 1011.5
20260506010444 11 33 1.6 6.4 0.00 0.00 0.00 100 1011.5
20260506010344 11 360 6.4 6.4 0.00 0.00 0.00 100 1011.5
20260506010244 11 350 3.2 6.4 0.00 0.00 0.00 100 1011.5
20260506010213 11 350 3.2 6.4 0.00 0.00 0.00 100 1011.5
20260506010144 11 348 4.8 6.4 0.00 0.00 0.00 100 1011.6
20260506010044 11 31 3.2 4.8 0.00 0.00 0.00 100 1011.6
20260506005946 11 19 3.2 4.8 0.00 0.00 0.00 100 1011.6
20260506005846 11 327 4.8 4.8 0.00 0.00 0.00 100 1011.6
20260506005746 11 49 6.4 9.7 0.00 0.00 0.00 100 1011.6
20260506005712 11 49 6.4 9.7 0.00 0.00 0.00 100 1011.6
20260506005645 11 319 8.0 9.7 0.00 0.00 0.00 100 1011.6
20260506005545 11 5 3.2 4.8 0.00 0.00 0.00 100 1011.6
20260506005445 11 340 1.6 4.8 0.00 0.00 0.00 100 1011.6
20260506005345 11 14 4.8 4.8 0.00 0.00 0.00 100 1011.6
20260506005245 11 355 3.2 8.0 0.00 0.00 0.00 100 1011.6
20260506005213 11 355 3.2 8.0 0.00 0.00 0.00 100 1011.6
20260506005144 11 5 3.2 8.0 0.00 0.00 0.00 100 1011.7
20260506005044 11 26 4.8 8.0 0.00 0.00 0.00 100 1011.7
20260506004945 11 31 3.2 4.8 0.00 0.00 0.00 100 1011.7
20260506004845 11 5 4.8 4.8 0.00 0.00 0.00 100 1011.7
20260506004745 11 346 3.2 9.7 0.00 0.00 0.00 100 1011.7
20260506004711 11 346 3.2 9.7 0.00 0.00 0.00 100 1011.7
20260506004645 11 25 3.2 9.7 0.00 0.00 0.00 100 1011.7
20260506004545 11 10 4.8 9.7 0.00 0.00 0.00 100 1011.7
20260506004445 11 344 4.8 9.7 0.00 0.00 0.00 100 1011.6
20260506004344 11 337 4.8 9.7 0.00 0.00 0.00 100 1011.7
20260506004244 11 5 4.8 14.5 0.00 0.00 0.00 100 1011.6
20260506004212 11 5 4.8 14.5 0.00 0.00 0.00 100 1011.6
20260506004146 11 355 14.5 14.5 0.00 0.00 0.00 100 1011.6
20260506004046 11 16 11.3 11.3 0.00 0.00 0.00 100 1011.7
20260506003946 11 355 11.3 11.3 0.00 0.00 0.00 100 1011.6
20260506003846 11 351 6.4 9.7 0.00 0.00 0.00 100 1011.6
20260506003746 11 20 9.7 11.3 0.00 0.00 0.00 100 1011.6
20260506003713 11 20 9.7 11.3 0.00 0.00 0.00 100 1011.6
20260506003645 11 350 3.2 11.3 0.00 0.00 0.00 100 1011.6
20260506003545 11 43 4.8 11.3 0.00 0.00 0.00 100 1011.7
20260506003445 11 21 6.4 11.3 0.00 0.00 0.00 100 1011.6
20260506003345 11 45 4.8 8.0 0.00 0.00 0.00 100 1011.7
20260506003244 11 15 6.4 11.3 0.00 0.00 0.00 100 1011.6
20260506003213 11 15 6.4 11.3 0.00 0.00 0.00 100 1011.6
20260506003145 11 360 1.6 11.3 0.00 0.00 0.00 100 1011.6
20260506003044 11 9 4.8 11.3 0.00 0.00 0.00 100 1011.6
20260506002944 11 21 11.3 11.3 0.00 0.00 0.00 100 1011.7
20260506002844 11 340 4.8 11.3 0.00 0.00 0.00 100 1011.7
20260506002746 11 332 4.8 12.9 0.00 0.00 0.00 100 1011.7
20260506002712 11 332 4.8 12.9 0.00 0.00 0.00 100 1011.7
20260506002646 12 333 4.8 12.9 0.00 0.00 0.00 100 1011.7
20260506002546 12 17 4.8 12.9 0.00 0.00 0.00 100 1011.7
20260506002446 12 29 4.8 12.9 0.00 0.00 0.00 100 1011.7
20260506002346 12 307 12.9 12.9 0.00 0.00 0.00 100 1011.7
20260506002246 12 355 8.0 14.5 0.00 0.00 0.00 100 1011.6
20260506002211 12 355 8.0 14.5 0.00 0.00 0.00 100 1011.6
20260506002145 12 19 6.4 11.3 0.00 0.00 0.00 100 1011.7
20260506002045 12 28 4.8 11.3 0.00 0.00 0.00 100 1011.7
20260506001945 12 17 6.4 11.3 0.00 0.00 0.00 100 1011.6
20260506001845 12 20 11.3 11.3 0.00 0.00 0.00 100 1011.7
20260506001745 12 5 6.4 14.5 0.00 0.00 0.00 100 1011.7
20260506001711 12 5 6.4 14.5 0.00 0.00 0.00 100 1011.7
20260506001645 12 36 4.8 14.5 0.00 0.00 0.00 100 1011.7
20260506001545 12 36 11.3 14.5 0.00 0.00 0.00 100 1011.7
20260506001445 12 355 4.8 9.7 0.00 0.00 0.00 100 1011.7
20260506001344 12 34 4.8 9.7 0.00 0.00 0.00 100 1011.7
20260506001245 12 339 3.2 16.1 0.00 0.00 0.00 100 1011.7
20260506001212 12 339 3.2 16.1 0.00 0.00 0.00 100 1011.7
20260506001144 12 349 6.4 16.1 0.00 0.00 0.00 100 1011.7
20260506001044 12 9 8.0 16.1 0.00 0.00 0.00 100 1011.6
20260506000945 12 13 4.8 16.1 0.00 0.00 0.00 100 1011.6
20260506000845 12 332 14.5 16.1 0.00 0.00 0.00 100 1011.7
20260506000745 12 306 4.8 9.7 0.00 0.00 0.00 100 1011.6
20260506000711 12 306 4.8 9.7 0.00 0.00 0.00 100 1011.6
20260506000645 12 77 3.2 9.7 0.00 0.00 0.00 100 1011.6
20260506000545 12 336 6.4 9.7 0.00 0.00 0.00 100 1011.7
20260506000445 12 350 4.8 9.7 0.00 0.00 0.00 100 1011.7
20260506000346 12 36 4.8 8.0 0.00 0.00 0.00 100 1011.7
20260506000247 12 23 6.4 8.0 0.00 0.00 0.00 100 1011.7
20260506000212 12 23 6.4 8.0 0.00 0.00 0.00 100 1011.7
20260506000145 12 355 6.4 6.4 0.00 0.00 0.00 100 1011.7
20260506000045 12 12 4.8 6.4 0.00 0.00 0.00 100 1011.7
20260505235945 12 338 3.2 4.8 0.00 0.00 0.00 100 1011.7
20260505235844 12 40 3.2 4.8 0.00 0.00 0.00 100 1011.7
20260505235744 12 27 4.8 11.3 0.00 0.00 0.00 100 1011.7
20260505235712 12 27 4.8 11.3 0.00 0.00 0.00 100 1011.7
20260505235644 12 27 4.8 11.3 0.00 0.00 0.00 100 1011.7
20260505235544 12 336 4.8 11.3 0.00 0.00 0.00 100 1011.7
20260505235444 12 9 3.2 4.8 0.00 0.00 0.00 100 1011.7
20260505235345 12 17 4.8 4.8 0.00 0.00 0.00 100 1011.6
20260505235245 12 28 4.8 11.3 0.00 0.00 0.00 100 1011.7
20260505235213 12 28 4.8 11.3 0.00 0.00 0.00 100 1011.7
20260505235145 12 24 4.8 11.3 0.00 0.00 0.00 100 1011.7
20260505235045 12 337 6.4 11.3 0.00 0.00 0.00 100 1011.7
20260505234946 12 36 8.0 11.3 0.00 0.00 0.00 100 1011.7
20260505234845 12 17 4.8 6.4 0.00 0.00 0.00 100 1011.7
20260505234745 12 18 1.6 11.3 0.00 0.00 0.00 100 1011.7
20260505234713 12 18 1.6 11.3 0.00 0.00 0.00 100 1011.7
20260505234644 12 346 4.8 11.3 0.00 0.00 0.00 100 1011.7
20260505234544 12 350 4.8 11.3 0.00 0.00 0.00 100 1011.7
20260505234444 12 13 4.8 11.3 0.00 0.00 0.00 100 1011.7
20260505234344 12 34 8.0 11.3 0.00 0.00 0.00 100 1011.7
20260505234244 12 34 4.8 9.7 0.00 0.00 0.00 100 1011.7
20260505234212 12 34 4.8 9.7 0.00 0.00 0.00 100 1011.7
20260505234144 12 34 4.8 9.7 0.00 0.00 0.00 100 1011.7
20260505234044 12 39 4.8 9.7 0.00 0.00 0.00 100 1011.7
20260505233944 12 13 4.8 9.7 0.00 0.00 0.00 100 1011.7
20260505233844 12 59 4.8 4.8 0.00 0.00 0.00 100 1011.7
20260505233744 12 46 4.8 12.9 0.00 0.00 0.00 100 1011.7
20260505233712 12 46 4.8 12.9 0.00 0.00 0.00 100 1011.7
20260505233644 12 344 6.4 12.9 0.00 0.00 0.00 100 1011.7
20260505233546 12 326 4.8 9.7 0.00 0.00 0.00 100 1011.7
20260505233446 12 26 4.8 9.7 0.00 0.00 0.00 100 1011.7
20260505233346 12 22 3.2 9.7 0.00 0.00 0.00 100 1011.6
20260505233246 12 36 12.9 17.7 0.00 0.00 0.00 100 1011.7
20260505233213 12 36 12.9 17.7 0.00 0.00 0.00 100 1011.7
20260505233144 12 11 4.8 17.7 0.00 0.00 0.00 100 1011.6
20260505233044 12 22 9.7 17.7 0.00 0.00 0.00 100 1011.6
20260505232944 12 5 4.8 12.9 0.00 0.00 0.00 100 1011.6
20260505232844 12 327 8.0 12.9 0.00 0.00 0.00 100 1011.6
20260505232744 12 16 11.3 14.5 0.00 0.00 0.00 100 1011.6
20260505232712 12 16 11.3 14.5 0.00 0.00 0.00 100 1011.6
20260505232644 12 15 9.7 14.5 0.00 0.00 0.00 100 1011.7
20260505232544 12 15 4.8 12.9 0.00 0.00 0.00 100 1011.6
20260505232444 12 9 12.9 12.9 0.00 0.00 0.00 100 1011.6
20260505232346 12 9 4.8 12.9 0.00 0.00 0.00 100 1011.6
20260505232246 12 333 14.5 14.5 0.00 0.00 0.00 100 1011.6
20260505232212 12 333 14.5 14.5 0.00 0.00 0.00 100 1011.6
20260505232146 12 25 3.2 6.4 0.00 0.00 0.00 100 1011.6
20260505232046 12 20 4.8 6.4 0.00 0.00 0.00 100 1011.6
20260505231944 12 16 4.8 6.4 0.00 0.00 0.00 100 1011.6
20260505231844 12 349 4.8 6.4 0.00 0.00 0.00 100 1011.6
20260505231744 12 342 6.4 11.3 0.00 0.00 0.00 100 1011.6
20260505231712 12 342 6.4 11.3 0.00 0.00 0.00 100 1011.6
20260505231646 12 36 8.0 11.3 0.00 0.00 0.00 100 1011.6
20260505231546 12 349 4.8 11.3 0.00 0.00 0.00 100 1011.6
20260505231446 12 28 4.8 11.3 0.00 0.00 0.00 100 1011.6
20260505231346 12 26 11.3 11.3 0.00 0.00 0.00 100 1011.6
20260505231245 12 350 6.4 11.3 0.00 0.00 0.00 100 1011.6
20260505231213 12 350 6.4 11.3 0.00 0.00 0.00 100 1011.6
20260505231145 12 355 4.8 11.3 0.00 0.00 0.00 100 1011.5
20260505231045 12 11 6.4 11.3 0.00 0.00 0.00 100 1011.6
20260505230945 12 348 8.0 9.7 0.00 0.00 0.00 100 1011.6
20260505230845 12 12 4.8 9.7 0.00 0.00 0.00 100 1011.5
20260505230744 12 35 4.8 16.1 0.00 0.00 0.00 100 1011.6
20260505230712 12 35 4.8 16.1 0.00 0.00 0.00 100 1011.6
20260505230644 12 338 12.9 12.9 0.00 0.00 0.00 100 1011.6
20260505230544 12 22 6.4 11.3 0.00 0.00 0.00 100 1011.6
20260505230444 12 13 4.8 9.7 0.00 0.00 0.00 100 1011.6
20260505230344 12 336 4.8 4.8 0.00 0.00 0.00 100 1011.6
20260505230245 12 25 3.2 12.9 0.00 0.00 0.00 100 1011.7
20260505230211 12 25 3.2 12.9 0.00 0.00 0.00 100 1011.7
20260505230145 12 13 8.0 12.9 0.00 0.00 0.00 100 1011.6
20260505230045 12 31 6.4 12.9 0.00 0.00 0.00 100 1011.6
20260505225945 12 63 11.3 12.9 0.00 0.00 0.00 100 1011.7
20260505225845 12 34 4.8 8.0 0.00 0.00 0.00 100 1011.7
20260505225744 12 20 4.8 11.3 0.00 0.00 0.00 100 1011.6
20260505225712 12 20 4.8 11.3 0.00 0.00 0.00 100 1011.6
20260505225644 12 360 4.8 11.3 0.00 0.00 0.00 100 1011.6
20260505225544 12 46 1.6 9.7 0.00 0.00 0.00 100 1011.6
20260505225444 12 17 3.2 9.7 0.00 0.00 0.00 100 1011.6
20260505225345 12 13 4.8 9.7 0.00 0.00 0.00 100 1011.6
20260505225245 12 26 0.0 8.0 0.00 0.00 0.00 100 1011.6
20260505225211 12 26 0.0 8.0 0.00 0.00 0.00 100 1011.6
20260505225145 12 11 3.2 8.0 0.00 0.00 0.00 100 1011.6
20260505225045 12 55 4.8 8.0 0.00 0.00 0.00 100 1011.7
20260505224945 12 360 4.8 8.0 0.00 0.00 0.00 100 1011.6
20260505224846 12 348 4.8 8.0 0.00 0.00 0.00 100 1011.6
20260505224746 11 342 4.8 8.0 0.00 0.00 0.00 100 1011.7
20260505224712 11 342 4.8 8.0 0.00 0.00 0.00 100 1011.7
20260505224645 11 360 4.8 8.0 0.00 0.00 0.00 100 1011.6
20260505224545 11 39 4.8 4.8 0.00 0.00 0.00 100 1011.7
20260505224445 11 9 1.6 4.8 0.00 0.00 0.00 100 1011.7
20260505224345 11 27 3.2 4.8 0.00 0.00 0.00 100 1011.7
20260505224245 11 15 1.6 4.8 0.00 0.00 0.00 100 1011.7
20260505224211 11 15 1.6 4.8 0.00 0.00 0.00 100 1011.7
20260505224145 11 355 1.6 4.8 0.00 0.00 0.00 100 1011.7
20260505224044 11 348 3.2 3.2 0.00 0.00 0.00 100 1011.7
20260505223944 11 58 1.6 3.2 0.00 0.00 0.00 100 1011.7
20260505223846 11 17 1.6 1.6 0.00 0.00 0.00 100 1011.6
20260505223746 11 17 0.0 3.2 0.00 0.00 0.00 100 1011.6
20260505223712 11 17 0.0 3.2 0.00 0.00 0.00 100 1011.6
20260505223646 11 17 3.2 3.2 0.00 0.00 0.00 100 1011.7
20260505223545 11 26 1.6 3.2 0.00 0.00 0.00 100 1011.6
20260505223445 11 342 0.0 3.2 0.00 0.00 0.00 100 1011.6
20260505223345 11 355 1.6 1.6 0.00 0.00 0.00 100 1011.7
20260505223245 11 344 1.6 6.4 0.00 0.00 0.00 100 1011.6
20260505223213 11 344 1.6 6.4 0.00 0.00 0.00 100 1011.6
20260505223144 11 24 1.6 6.4 0.00 0.00 0.00 100 1011.6
20260505223045 11 44 3.2 6.4 0.00 0.00 0.00 100 1011.6
20260505222945 11 59 4.8 6.4 0.00 0.00 0.00 100 1011.6
20260505222845 11 92 1.6 6.4 0.00 0.00 0.00 100 1011.6
20260505222745 11 63 1.6 8.0 0.00 0.00 0.00 100 1011.7
20260505222711 11 63 1.6 8.0 0.00 0.00 0.00 100 1011.7
20260505222645 11 59 3.2 4.8 0.00 0.00 0.00 100 1011.7
20260505222545 11 15 3.2 4.8 0.00 0.00 0.00 100 1011.7
20260505222446 11 355 0.0 3.2 0.00 0.00 0.00 100 1011.7
20260505222346 11 346 1.6 3.2 0.00 0.00 0.00 100 1011.7
20260505222246 11 355 3.2 4.8 0.00 0.00 0.00 100 1011.7
20260505222212 11 355 3.2 4.8 0.00 0.00 0.00 100 1011.7
20260505222146 11 58 1.6 4.8 0.00 0.00 0.00 100 1011.7
20260505222045 11 120 0.0 3.2 0.00 0.00 0.00 100 1011.7
20260505221945 11 67 0.0 3.2 0.00 0.00 0.00 100 1011.7
20260505221844 11 67 3.2 3.2 0.00 0.00 0.00 100 1011.7
20260505221745 11 355 1.6 4.8 0.00 0.00 0.00 100 1011.7
20260505221712 11 355 1.6 4.8 0.00 0.00 0.00 100 1011.7
20260505221644 11 59 3.2 4.8 0.00 0.00 0.00 100 1011.7
20260505221546 11 17 4.8 4.8 0.00 0.00 0.00 100 1011.7
20260505221445 11 49 3.2 3.2 0.00 0.00 0.00 100 1011.7
20260505221345 11 38 1.6 1.6 0.00 0.00 0.00 100 1011.7
20260505221244 11 49 0.0 1.6 0.00 0.00 0.00 100 1011.7
20260505221212 11 49 0.0 1.6 0.00 0.00 0.00 100 1011.7
20260505221144 11 49 0.0 1.6 0.00 0.00 0.00 100 1011.7
20260505221044 11 71 0.0 1.6 0.00 0.00 0.00 100 1011.6
20260505220944 11 71 0.0 1.6 0.00 0.00 0.00 100 1011.7
20260505220844 11 73 1.6 1.6 0.00 0.00 0.00 100 1011.6
20260505220744 11 61 1.6 4.8 0.00 0.00 0.00 100 1011.7
20260505220712 11 61 1.6 4.8 0.00 0.00 0.00 100 1011.7
20260505220644 11 349 4.8 4.8 0.00 0.00 0.00 100 1011.6
20260505220546 11 40 1.6 4.8 0.00 0.00 0.00 100 1011.6
20260505220445 11 24 3.2 3.2 0.00 0.00 0.00 100 1011.6
20260505220345 11 40 1.6 1.6 0.00 0.00 0.00 100 1011.6
20260505220245 11 45 1.6 4.8 0.00 0.00 0.00 100 1011.6
20260505220213 11 45 1.6 4.8 0.00 0.00 0.00 100 1011.6
20260505220145 11 14 4.8 4.8 0.00 0.00 0.00 100 1011.6
20260505220045 11 27 4.8 4.8 0.00 0.00 0.00 100 1011.6
20260505215944 11 28 4.8 4.8 0.00 0.00 0.00 100 1011.6
20260505215844 11 28 1.6 4.8 0.00 0.00 0.00 100 1011.6
20260505215745 11 30 1.6 8.0 0.00 0.00 0.00 100 1011.6
20260505215712 11 30 1.6 8.0 0.00 0.00 0.00 100 1011.6
20260505215645 11 15 3.2 8.0 0.00 0.00 0.00 100 1011.5
20260505215545 11 80 4.8 8.0 0.00 0.00 0.00 100 1011.5
20260505215445 11 32 1.6 4.8 0.00 0.00 0.00 100 1011.5
20260505215345 11 53 0.0 4.8 0.00 0.00 0.00 100 1011.5
20260505215245 11 42 3.2 9.7 0.00 0.00 0.00 100 1011.5
20260505215211 11 42 3.2 9.7 0.00 0.00 0.00 100 1011.5
20260505215145 11 13 1.6 9.7 0.00 0.00 0.00 100 1011.5
20260505215045 11 24 3.2 9.7 0.00 0.00 0.00 100 1011.5
20260505214945 11 17 6.4 8.0 0.00 0.00 0.00 100 1011.5
20260505214845 11 46 6.4 8.0 0.00 0.00 0.00 100 1011.5
20260505214745 11 54 3.2 16.1 0.00 0.00 0.00 100 1011.5
20260505214713 11 54 3.2 16.1 0.00 0.00 0.00 100 1011.5
20260505214645 11 35 8.0 16.1 0.00 0.00 0.00 100 1011.5
20260505214545 11 38 11.3 16.1 0.00 0.00 0.00 100 1011.6
20260505214446 11 88 4.8 16.1 0.00 0.00 0.00 100 1011.5
20260505214346 11 11 4.8 16.1 0.00 0.00 0.00 100 1011.6
20260505214245 11 24 3.2 6.4 0.00 0.00 0.00 100 1011.5
20260505214211 11 24 3.2 6.4 0.00 0.00 0.00 100 1011.5
20260505214145 11 360 4.8 6.4 0.00 0.00 0.00 100 1011.5
20260505214044 11 38 3.2 4.8 0.00 0.00 0.00 100 1011.5
20260505213944 11 40 3.2 4.8 0.00 0.00 0.00 100 1011.6
20260505213844 11 57 3.2 4.8 0.00 0.00 0.00 100 1011.5
20260505213744 11 19 3.2 8.0 0.00 0.00 0.00 100 1011.5
20260505213712 11 19 3.2 8.0 0.00 0.00 0.00 100 1011.5
20260505213644 11 24 4.8 8.0 0.00 0.00 0.00 100 1011.5
20260505213544 11 9 3.2 8.0 0.00 0.00 0.00 100 1011.6
20260505213444 11 9 1.6 8.0 0.00 0.00 0.00 100 1011.6
20260505213344 11 19 4.8 8.0 0.00 0.00 0.00 100 1011.5
20260505213246 11 34 8.0 8.0 0.00 0.00 0.00 100 1011.5
20260505213212 11 34 8.0 8.0 0.00 0.00 0.00 100 1011.5
20260505213145 11 25 3.2 8.0 0.00 0.00 0.00 100 1011.5
20260505213044 11 15 3.2 8.0 0.00 0.00 0.00 100 1011.6
20260505212944 11 5 3.2 8.0 0.00 0.00 0.00 100 1011.6
20260505212844 11 15 3.2 8.0 0.00 0.00 0.00 100 1011.6
20260505212744 11 34 3.2 8.0 0.00 0.00 0.00 100 1011.6
20260505212712 11 34 3.2 8.0 0.00 0.00 0.00 100 1011.6
20260505212645 11 47 6.4 8.0 0.00 0.00 0.00 100 1011.6
20260505212545 11 61 4.8 8.0 0.00 0.00 0.00 100 1011.6
20260505212445 11 18 3.2 8.0 0.00 0.00 0.00 100 1011.6
20260505212345 11 28 8.0 8.0 0.00 0.00 0.00 100 1011.6
20260505212245 11 13 3.2 11.3 0.00 0.00 0.00 100 1011.6
20260505212211 11 13 3.2 11.3 0.00 0.00 0.00 100 1011.6
20260505212145 11 24 1.6 11.3 0.00 0.00 0.00 100 1011.6
20260505212045 11 346 3.2 11.3 0.00 0.00 0.00 100 1011.6
20260505211946 11 40 4.8 11.3 0.00 0.00 0.00 100 1011.6
20260505211846 11 360 4.8 11.3 0.00 0.00 0.00 100 1011.6
20260505211746 11 342 3.2 6.4 0.00 0.00 0.00 100 1011.6
20260505211713 11 342 3.2 6.4 0.00 0.00 0.00 100 1011.6
20260505211644 11 53 4.8 6.4 0.00 0.00 0.00 100 1011.6
20260505211544 11 36 3.2 6.4 0.00 0.00 0.00 100 1011.6
20260505211444 11 28 1.6 6.4 0.00 0.00 0.00 100 1011.6
20260505211344 11 58 4.8 6.4 0.00 0.00 0.00 100 1011.6
20260505211244 11 355 4.8 9.7 0.00 0.00 0.00 100 1011.6
20260505211212 11 355 4.8 9.7 0.00 0.00 0.00 100 1011.6
20260505211144 11 19 4.8 9.7 0.00 0.00 0.00 100 1011.6
20260505211044 11 45 3.2 6.4 0.00 0.00 0.00 100 1011.6
20260505210946 11 17 3.2 6.4 0.00 0.00 0.00 100 1011.6
20260505210846 11 360 4.8 6.4 0.00 0.00 0.00 100 1011.6
20260505210746 11 360 3.2 6.4 0.00 0.00 0.00 100 1011.6
20260505210713 11 360 3.2 6.4 0.00 0.00 0.00 100 1011.6
20260505210645 11 34 1.6 3.2 0.00 0.00 0.00 100 1011.6
20260505210545 11 9 0.0 3.2 0.00 0.00 0.00 100 1011.6
20260505210445 11 9 0.0 3.2 0.00 0.00 0.00 100 1011.6
20260505210345 11 13 3.2 3.2 0.00 0.00 0.00 100 1011.6
20260505210245 11 11 3.2 6.4 0.00 0.00 0.00 100 1011.6
20260505210211 11 11 3.2 6.4 0.00 0.00 0.00 100 1011.6
20260505210145 11 42 0.0 6.4 0.00 0.00 0.00 100 1011.6
20260505210045 11 28 4.8 6.4 0.00 0.00 0.00 100 1011.6
20260505205945 11 38 4.8 6.4 0.00 0.00 0.00 100 1011.6
20260505205845 11 37 4.8 4.8 0.00 0.00 0.00 100 1011.6
20260505205746 11 23 4.8 4.8 0.00 0.00 0.00 100 1011.6
20260505205713 11 23 4.8 4.8 0.00 0.00 0.00 100 1011.6
20260505205646 11 71 3.2 4.8 0.00 0.00 0.00 100 1011.6
20260505205546 11 47 3.2 4.8 0.00 0.00 0.00 100 1011.6
20260505205445 11 29 3.2 3.2 0.00 0.00 0.00 100 1011.6
20260505205345 11 19 1.6 1.6 0.00 0.00 0.00 100 1011.6
20260505205245 11 5 3.2 4.8 0.00 0.00 0.00 100 1011.6
20260505205211 11 5 3.2 4.8 0.00 0.00 0.00 100 1011.6
20260505205145 11 5 3.2 4.8 0.00 0.00 0.00 100 1011.6
20260505205045 11 20 1.6 4.8 0.00 0.00 0.00 100 1011.6
20260505204944 11 350 3.2 4.8 0.00 0.00 0.00 100 1011.6
20260505204844 11 9 4.8 4.8 0.00 0.00 0.00 100 1011.6
20260505204746 11 5 3.2 4.8 0.00 0.00 0.00 100 1011.6
20260505204712 11 5 3.2 4.8 0.00 0.00 0.00 100 1011.6
20260505204645 11 27 1.6 4.8 0.00 0.00 0.00 100 1011.6
20260505204545 11 340 4.8 4.8 0.00 0.00 0.00 100 1011.6
20260505204444 11 43 3.2 4.8 0.00 0.00 0.00 100 1011.5
20260505204344 11 5 3.2 4.8 0.00 0.00 0.00 100 1011.6
20260505204246 11 13 3.2 6.4 0.00 0.00 0.00 100 1011.6
20260505204212 11 13 3.2 6.4 0.00 0.00 0.00 100 1011.6
20260505204146 11 5 1.6 6.4 0.00 0.00 0.00 100 1011.6
20260505204046 11 5 3.2 6.4 0.00 0.00 0.00 100 1011.6
20260505203946 11 13 1.6 6.4 0.00 0.00 0.00 100 1011.5
20260505203846 11 42 4.8 6.4 0.00 0.00 0.00 100 1011.5
20260505203745 11 54 4.8 8.0 0.00 0.00 0.00 100 1011.5
20260505203711 11 54 4.8 8.0 0.00 0.00 0.00 100 1011.5
20260505203645 11 40 4.8 8.0 0.00 0.00 0.00 100 1011.5
20260505203544 11 32 8.0 8.0 0.00 0.00 0.00 100 1011.5
20260505203444 11 34 4.8 4.8 0.00 0.00 0.00 100 1011.5
20260505203344 11 50 3.2 4.8 0.00 0.00 0.00 100 1011.5
20260505203244 11 355 4.8 11.3 0.00 0.00 0.00 100 1011.5
20260505203212 11 355 4.8 11.3 0.00 0.00 0.00 100 1011.5
20260505203146 11 32 3.2 11.3 0.00 0.00 0.00 100 1011.5
20260505203046 11 28 1.6 11.3 0.00 0.00 0.00 100 1011.4
20260505202946 12 80 9.7 11.3 0.00 0.00 0.00 100 1011.5
20260505202846 12 45 3.2 3.2 0.00 0.00 0.00 100 1011.4
20260505202745 12 17 1.6 8.0 0.00 0.00 0.00 100 1011.5
20260505202712 12 17 1.6 8.0 0.00 0.00 0.00 100 1011.5
20260505202644 12 29 1.6 6.4 0.00 0.00 0.00 100 1011.4
20260505202545 12 53 4.8 6.4 0.00 0.00 0.00 100 1011.4
20260505202445 12 28 4.8 6.4 0.00 0.00 0.00 100 1011.5
20260505202345 12 355 3.2 4.8 0.00 0.00 0.00 100 1011.5
20260505202246 12 360 4.8 8.0 0.00 0.00 0.00 100 1011.5
20260505202212 12 360 4.8 8.0 0.00 0.00 0.00 100 1011.5
20260505202146 12 26 1.6 8.0 0.00 0.00 0.00 100 1011.4
20260505202046 12 17 3.2 8.0 0.00 0.00 0.00 100 1011.5
20260505201946 12 34 3.2 8.0 0.00 0.00 0.00 100 1011.5
20260505201844 12 13 3.2 6.4 0.00 0.00 0.00 100 1011.4
20260505201744 12 341 4.8 4.8 0.00 0.00 0.00 100 1011.4
20260505201712 12 341 4.8 4.8 0.00 0.00 0.00 100 1011.4
20260505201646 12 340 3.2 4.8 0.00 0.00 0.00 100 1011.4
20260505201546 12 5 3.2 4.8 0.00 0.00 0.00 100 1011.4
20260505201444 12 355 4.8 4.8 0.00 0.00 0.00 100 1011.4
20260505201344 12 13 0.0 3.2 0.00 0.00 0.00 100 1011.4
20260505201245 12 45 3.2 4.8 0.00 0.00 0.00 100 1011.4
20260505201211 12 45 3.2 4.8 0.00 0.00 0.00 100 1011.4
20260505201145 12 48 3.2 4.8 0.00 0.00 0.00 100 1011.3
20260505201045 12 61 4.8 4.8 0.00 0.00 0.00 100 1011.3
20260505200944 12 314 4.8 4.8 0.00 0.00 0.00 100 1011.3
20260505200844 12 13 4.8 4.8 0.00 0.00 0.00 100 1011.3
20260505200744 12 13 4.8 4.8 0.00 0.00 0.00 100 1011.3
20260505200712 12 13 4.8 4.8 0.00 0.00 0.00 100 1011.3
20260505200644 12 360 3.2 4.8 0.00 0.00 0.00 100 1011.3
20260505200545 12 5 1.6 4.8 0.00 0.00 0.00 100 1011.3
20260505200445 12 5 4.8 4.8 0.00 0.00 0.00 100 1011.3
20260505200345 12 348 3.2 3.2 0.00 0.00 0.00 100 1011.2
20260505200245 12 351 3.2 4.8 0.00 0.00 0.00 100 1011.2
20260505200213 12 351 3.2 4.8 0.00 0.00 0.00 100 1011.2
20260505200144 12 10 3.2 4.8 0.00 0.00 0.00 100 1011.2
20260505200044 12 355 3.2 4.8 0.00 0.00 0.00 100 1011.2
20260505195944 12 355 4.8 4.8 0.00 0.00 0.00 100 1011.2
20260505195844 12 9 4.8 4.8 0.00 0.00 0.00 100 1011.2
20260505195744 12 11 4.8 9.7 0.00 0.00 0.00 100 1011.2
20260505195712 12 11 4.8 9.7 0.00 0.00 0.00 100 1011.2
20260505195645 12 46 4.8 6.4 0.00 0.00 0.00 100 1011.2
20260505195545 12 5 1.6 4.8 0.00 0.00 0.00 100 1011.2
20260505195445 12 44 3.2 4.8 0.00 0.00 0.00 100 1011.2
20260505195345 12 43 1.6 4.8 0.00 0.00 0.00 100 1011.1
20260505195245 12 360 3.2 9.7 0.00 0.00 0.00 100 1011.1
20260505195211 12 360 3.2 9.7 0.00 0.00 0.00 100 1011.1
20260505195144 12 13 1.6 9.7 0.00 0.00 0.00 100 1011.1
20260505195044 12 355 1.6 9.7 0.00 0.00 0.00 100 1011.1
20260505194944 12 18 4.8 9.7 0.00 0.00 0.00 100 1011.1
20260505194844 12 13 3.2 9.7 0.00 0.00 0.00 100 1011.1
20260505194744 12 34 3.2 6.4 0.00 0.00 0.00 100 1011.1
20260505194712 12 34 3.2 6.4 0.00 0.00 0.00 100 1011.1
20260505194645 12 5 4.8 6.4 0.00 0.00 0.00 100 1011.1
20260505194545 12 5 4.8 6.4 0.00 0.00 0.00 100 1011.0
20260505194445 12 19 3.2 6.4 0.00 0.00 0.00 100 1011.0
20260505194345 12 5 1.6 4.8 0.00 0.00 0.00 100 1011.0
20260505194245 12 15 3.2 4.8 0.00 0.00 0.00 100 1011.0
20260505194211 12 15 3.2 4.8 0.00 0.00 0.00 100 1011.0
20260505194145 12 17 3.2 4.8 0.00 0.00 0.00 100 1011.0
20260505194045 12 10 1.6 4.8 0.00 0.00 0.00 100 1011.0
20260505193945 12 43 4.8 4.8 0.00 0.00 0.00 100 1011.0
20260505193845 12 34 3.2 4.8 0.00 0.00 0.00 100 1011.0
20260505193745 12 46 4.8 6.4 0.00 0.00 0.00 100 1011.0
20260505193712 12 46 4.8 6.4 0.00 0.00 0.00 100 1011.0
20260505193644 12 49 4.8 6.4 0.00 0.00 0.00 100 1011.0
20260505193544 12 19 1.6 6.4 0.00 0.00 0.00 2 1011.0
20260505193444 13 10 1.6 6.4 0.00 0.00 0.00 2 1011.0
20260505193344 13 30 3.2 6.4 0.00 0.00 0.00 3 1011.0
20260505193244 13 5 1.6 4.8 0.00 0.00 0.00 4 1011.0
20260505193212 13 5 1.6 4.8 0.00 0.00 0.00 4 1011.0
20260505193145 13 23 1.6 4.8 0.00 0.00 0.00 5 1010.9
20260505193045 13 20 4.8 4.8 0.00 0.00 0.00 6 1011.0
20260505192945 13 5 1.6 4.8 0.00 0.00 0.00 8 1010.9
20260505192845 13 351 4.8 4.8 0.00 0.00 0.00 8 1010.9
20260505192745 13 14 3.2 4.8 0.00 0.00 0.00 9 1010.9
20260505192711 13 14 3.2 4.8 0.00 0.00 0.00 9 1010.9
20260505192645 13 31 4.8 4.8 0.00 0.00 0.00 10 1010.9
20260505192545 13 28 1.6 3.2 0.00 0.00 0.00 11 1010.9
20260505192445 13 28 1.6 3.2 0.00 0.00 0.00 11 1010.9
20260505192345 13 44 1.6 3.2 0.00 0.00 0.00 12 1010.9
20260505192244 13 44 1.6 4.8 0.00 0.00 0.00 13 1010.9
20260505192212 13 44 1.6 4.8 0.00 0.00 0.00 13 1010.9
20260505192146 13 22 1.6 4.8 0.00 0.00 0.00 14 1010.9
20260505192045 13 41 3.2 4.8 0.00 0.00 0.00 15 1010.9
20260505191945 13 44 3.2 3.2 0.00 0.00 0.00 16 1010.9
20260505191845 13 17 1.6 3.2 0.00 0.00 0.00 16 1010.9
20260505191744 13 23 4.8 6.4 0.00 0.00 0.00 18 1010.8
20260505191712 13 23 4.8 6.4 0.00 0.00 0.00 18 1010.8
20260505191646 13 49 3.2 6.4 0.00 0.00 0.00 18 1010.9
20260505191546 13 44 3.2 6.4 0.00 0.00 0.00 19 1010.8
20260505191446 13 26 3.2 4.8 0.00 0.00 0.00 19 1010.8
20260505191346 13 41 4.8 4.8 0.00 0.00 0.00 20 1010.8
20260505191246 13 18 3.2 8.0 0.00 0.00 0.00 21 1010.8
20260505191212 13 18 3.2 8.0 0.00 0.00 0.00 21 1010.8
20260505191145 13 48 6.4 8.0 0.00 0.00 0.00 22 1010.9
20260505191045 13 52 4.8 4.8 0.00 0.00 0.00 22 1010.8
20260505190945 13 26 1.6 3.2 0.00 0.00 0.00 23 1010.8
20260505190845 13 355 3.2 3.2 0.00 0.00 0.00 23 1010.8
20260505190745 13 19 1.6 8.0 0.00 0.00 0.00 24 1010.9
20260505190711 13 19 1.6 8.0 0.00 0.00 0.00 24 1010.9
20260505190645 13 17 4.8 8.0 0.00 0.00 0.00 25 1010.8
20260505190545 13 42 4.8 8.0 0.00 0.00 0.00 25 1010.9
20260505190445 13 345 4.8 8.0 0.00 0.00 0.00 25 1010.9
20260505190344 13 360 4.8 4.8 0.00 0.00 0.00 26 1010.9
20260505190244 13 18 1.6 8.0 0.00 0.00 0.00 27 1010.8
20260505190212 13 18 1.6 8.0 0.00 0.00 0.00 27 1010.8
20260505190146 13 40 1.6 8.0 0.00 0.00 0.00 27 1010.9
20260505190046 13 51 6.4 8.0 0.00 0.00 0.00 28 1010.8
20260505185946 13 48 4.8 4.8 0.00 0.00 0.00 29 1010.8
20260505185844 13 30 3.2 4.8 0.00 0.00 0.00 30 1010.8
20260505185744 13 32 4.8 9.7 0.00 0.00 0.00 30 1010.8
20260505185712 13 32 4.8 9.7 0.00 0.00 0.00 30 1010.8
20260505185644 13 47 6.4 9.7 0.00 0.00 0.00 31 1010.8
20260505185544 13 21 6.4 8.0 0.00 0.00 0.00 31 1010.8
20260505185445 13 17 4.8 6.4 0.00 0.00 0.00 32 1010.8
20260505185345 13 25 3.2 4.8 0.00 0.00 0.00 33 1010.8
20260505185245 13 30 4.8 9.7 0.00 0.00 0.00 33 1010.8
20260505185211 13 30 4.8 9.7 0.00 0.00 0.00 33 1010.8
20260505185145 13 17 4.8 9.7 0.00 0.00 0.00 34 1010.8
20260505185045 13 347 4.8 9.7 0.00 0.00 0.00 34 1010.8
20260505184944 13 62 4.8 6.4 0.00 0.00 0.00 34 1010.7
20260505184844 13 345 4.8 6.4 0.00 0.00 0.00 35 1010.8
20260505184744 13 15 4.8 11.3 0.00 0.00 0.00 36 1010.8
20260505184712 13 15 4.8 11.3 0.00 0.00 0.00 36 1010.8
20260505184646 13 34 9.7 11.3 0.00 0.00 0.00 36 1010.8
20260505184546 13 34 4.8 8.0 0.00 0.00 0.00 36 1010.7
20260505184445 13 21 4.8 8.0 0.00 0.00 0.00 36 1010.7
20260505184345 13 51 3.2 8.0 0.00 0.00 0.00 37 1010.7
20260505184244 14 46 1.6 12.9 0.00 0.00 0.00 37 1010.7
20260505184212 14 46 1.6 12.9 0.00 0.00 0.00 37 1010.7
20260505184144 14 345 6.4 11.3 0.00 0.00 0.00 38 1010.6
20260505184044 14 38 9.7 9.7 0.00 0.00 0.00 38 1010.7
20260505183945 14 23 3.2 4.8 0.00 0.00 0.00 38 1010.7
20260505183845 14 5 3.2 4.8 0.00 0.00 0.00 39 1010.7
20260505183745 14 17 4.8 12.9 0.00 0.00 0.00 39 1010.6
20260505183711 14 17 4.8 12.9 0.00 0.00 0.00 39 1010.6
20260505183645 14 18 3.2 12.9 0.00 0.00 0.00 40 1010.6
20260505183545 14 13 4.8 12.9 0.00 0.00 0.00 40 1010.6
20260505183445 14 355 3.2 12.9 0.00 0.00 0.00 41 1010.6
20260505183345 14 39 9.7 9.7 0.00 0.00 0.00 41 1010.6
20260505183245 14 43 4.8 14.5 0.00 0.00 0.00 41 1010.6
20260505183213 14 43 4.8 14.5 0.00 0.00 0.00 41 1010.6
20260505183145 14 30 3.2 14.5 0.00 0.00 0.00 41 1010.5
20260505183045 14 9 6.4 14.5 0.00 0.00 0.00 42 1010.5
20260505182944 14 28 8.0 14.5 0.00 0.00 0.00 42 1010.5
20260505182846 14 15 6.4 9.7 0.00 0.00 0.00 42 1010.6
20260505182745 14 360 3.2 11.3 0.00 0.00 0.00 42 1010.6
20260505182711 14 360 3.2 11.3 0.00 0.00 0.00 42 1010.6
20260505182645 14 360 8.0 8.0 0.00 0.00 0.00 42 1010.6
20260505182544 15 26 3.2 4.8 0.00 0.00 0.00 43 1010.6
20260505182444 15 27 3.2 4.8 0.00 0.00 0.00 43 1010.6
20260505182344 15 15 3.2 4.8 0.00 0.00 0.00 43 1010.5
20260505182244 15 360 3.2 9.7 0.00 0.00 0.00 43 1010.5
20260505182212 15 360 3.2 9.7 0.00 0.00 0.00 43 1010.5
20260505182144 15 45 9.7 9.7 0.00 0.00 0.00 43 1010.5
20260505182046 15 31 4.8 8.0 0.00 0.00 0.00 43 1010.5
20260505181945 15 5 4.8 4.8 0.00 0.00 0.00 43 1010.5
20260505181845 15 56 3.2 4.8 0.00 0.00 0.00 43 1010.6
20260505181745 15 31 3.2 12.9 0.00 0.00 0.00 44 1010.6
20260505181711 15 31 3.2 12.9 0.00 0.00 0.00 44 1010.6
20260505181645 15 34 8.0 12.9 0.00 0.00 0.00 44 1010.5
20260505181544 15 67 4.8 12.9 0.00 0.00 0.00 44 1010.5
20260505181445 15 23 4.8 9.7 0.00 0.00 0.00 44 1010.5
20260505181345 15 58 9.7 9.7 0.00 0.00 0.00 44 1010.5
20260505181245 15 5 1.6 11.3 0.00 0.00 0.00 44 1010.5
20260505181211 15 5 1.6 11.3 0.00 0.00 0.00 44 1010.5
20260505181145 15 43 3.2 11.3 0.00 0.00 0.00 44 1010.5
20260505181045 15 53 4.8 6.4 0.00 0.00 0.00 44 1010.5
20260505180945 15 51 4.8 6.4 0.00 0.00 0.00 44 1010.5
20260505180845 15 27 4.8 6.4 0.00 0.00 0.00 44 1010.5
20260505180744 15 53 9.7 16.1 0.00 0.00 0.00 44 1010.5
20260505180712 15 53 9.7 16.1 0.00 0.00 0.00 44 1010.5
20260505180644 15 9 8.0 16.1 0.00 0.00 0.00 44 1010.5
20260505180546 15 20 4.8 16.1 0.00 0.00 0.00 44 1010.5
20260505180446 15 66 6.4 16.1 0.00 0.00 0.00 44 1010.5
20260505180346 15 46 9.7 9.7 0.00 0.00 0.00 43 1010.5
20260505180245 15 59 9.7 14.5 0.00 0.00 0.00 43 1010.5
20260505180213 15 59 9.7 14.5 0.00 0.00 0.00 43 1010.5
20260505180144 15 40 4.8 14.5 0.00 0.00 0.00 43 1010.5
20260505180044 15 64 14.5 14.5 0.00 0.00 0.00 43 1010.5
20260505175944 15 5 3.2 11.3 0.00 0.00 0.00 43 1010.5
20260505175844 15 52 3.2 9.7 0.00 0.00 0.00 44 1010.5
20260505175745 15 25 4.8 9.7 0.00 0.00 0.00 44 1010.5
20260505175711 15 25 4.8 9.7 0.00 0.00 0.00 44 1010.5
20260505175645 15 28 3.2 9.7 0.00 0.00 0.00 44 1010.5
20260505175545 15 80 3.2 9.7 0.00 0.00 0.00 44 1010.5
20260505175445 15 77 4.8 9.7 0.00 0.00 0.00 44 1010.5
20260505175345 15 59 3.2 9.7 0.00 0.00 0.00 44 1010.5
20260505175245 15 62 3.2 16.1 0.00 0.00 0.00 44 1010.5
20260505175213 15 62 3.2 16.1 0.00 0.00 0.00 44 1010.5
20260505175146 15 69 3.2 16.1 0.00 0.00 0.00 44 1010.5
20260505175046 15 86 4.8 16.1 0.00 0.00 0.00 44 1010.6
20260505174946 15 36 9.7 16.1 0.00 0.00 0.00 44 1010.6
20260505174846 15 59 4.8 9.7 0.00 0.00 0.00 44 1010.5
20260505174745 15 30 4.8 11.3 0.00 0.00 0.00 44 1010.5
20260505174713 15 30 4.8 11.3 0.00 0.00 0.00 44 1010.5
20260505174644 15 26 11.3 11.3 0.00 0.00 0.00 44 1010.6
20260505174545 15 33 3.2 8.0 0.00 0.00 0.00 44 1010.5
20260505174445 15 50 3.2 8.0 0.00 0.00 0.00 44 1010.5
20260505174344 15 42 4.8 8.0 0.00 0.00 0.00 44 1010.5
20260505174244 15 32 4.8 14.5 0.00 0.00 0.00 44 1010.6
20260505174212 15 32 4.8 14.5 0.00 0.00 0.00 44 1010.6
20260505174144 15 19 8.0 14.5 0.00 0.00 0.00 44 1010.6
20260505174044 15 25 8.0 14.5 0.00 0.00 0.00 44 1010.5
20260505173944 15 98 9.7 14.5 0.00 0.00 0.00 44 1010.5
20260505173844 15 26 6.4 14.5 0.00 0.00 0.00 44 1010.6
20260505173745 15 72 4.8 14.5 0.00 0.00 0.00 43 1010.5
20260505173713 15 72 4.8 14.5 0.00 0.00 0.00 43 1010.5
20260505173645 15 10 4.8 14.5 0.00 0.00 0.00 43 1010.5
20260505173544 15 36 4.8 14.5 0.00 0.00 0.00 43 1010.6
20260505173444 15 61 4.8 11.3 0.00 0.00 0.00 43 1010.6
20260505173344 15 57 9.7 11.3 0.00 0.00 0.00 43 1010.6
20260505173244 15 325 4.8 9.7 0.00 0.00 0.00 43 1010.6
20260505173212 15 325 4.8 9.7 0.00 0.00 0.00 43 1010.6
20260505173144 15 90 3.2 9.7 0.00 0.00 0.00 43 1010.6
20260505173044 15 9 4.8 9.7 0.00 0.00 0.00 43 1010.6
20260505172944 15 31 4.8 9.7 0.00 0.00 0.00 43 1010.6
20260505172845 15 26 9.7 9.7 0.00 0.00 0.00 43 1010.6
20260505172745 15 36 12.9 12.9 0.00 0.00 0.00 43 1010.6
20260505172711 15 36 12.9 12.9 0.00 0.00 0.00 43 1010.6
20260505172645 15 53 4.8 12.9 0.00 0.00 0.00 43 1010.6
20260505172546 15 49 4.8 12.9 0.00 0.00 0.00 43 1010.6
20260505172446 15 39 6.4 12.9 0.00 0.00 0.00 43 1010.6
20260505172346 15 51 8.0 9.7 0.00 0.00 0.00 43 1010.6
20260505172246 15 46 6.4 16.1 0.00 0.00 0.00 43 1010.6
20260505172212 15 46 6.4 16.1 0.00 0.00 0.00 43 1010.6
20260505172146 15 5 4.8 16.1 0.00 0.00 0.00 43 1010.5
20260505172046 15 47 8.0 16.1 0.00 0.00 0.00 43 1010.6
20260505171945 15 30 6.4 16.1 0.00 0.00 0.00 43 1010.6
20260505171845 15 42 8.0 9.7 0.00 0.00 0.00 43 1010.6
20260505171745 15 39 11.3 16.1 0.00 0.00 0.00 43 1010.6
20260505171712 15 39 11.3 16.1 0.00 0.00 0.00 43 1010.6
20260505171644 15 360 4.8 16.1 0.00 0.00 0.00 42 1010.5
20260505171544 15 68 4.8 16.1 0.00 0.00 0.00 42 1010.5
20260505171444 16 349 4.8 16.1 0.00 0.00 0.00 42 1010.5
20260505171344 15 13 3.2 6.4 0.00 0.00 0.00 42 1010.5
20260505171244 15 23 6.4 11.3 0.00 0.00 0.00 43 1010.6
20260505171212 15 23 6.4 11.3 0.00 0.00 0.00 43 1010.6
20260505171144 15 360 6.4 9.7 0.00 0.00 0.00 43 1010.5
20260505171045 15 360 4.8 8.0 0.00 0.00 0.00 43 1010.6
20260505170945 15 32 4.8 8.0 0.00 0.00 0.00 43 1010.5
20260505170845 15 38 4.8 6.4 0.00 0.00 0.00 43 1010.5
20260505170745 15 58 6.4 16.1 0.00 0.00 0.00 43 1010.5
20260505170713 15 58 6.4 16.1 0.00 0.00 0.00 43 1010.5
20260505170645 15 41 4.8 16.1 0.00 0.00 0.00 43 1010.6
20260505170545 15 30 4.8 14.5 0.00 0.00 0.00 43 1010.6
20260505170444 15 44 4.8 14.5 0.00 0.00 0.00 43 1010.5
20260505170345 15 11 6.4 14.5 0.00 0.00 0.00 43 1010.6
20260505170245 16 51 4.8 14.5 0.00 0.00 0.00 43 1010.6
20260505170211 16 51 4.8 14.5 0.00 0.00 0.00 43 1010.6
20260505170145 16 64 14.5 14.5 0.00 0.00 0.00 43 1010.6
20260505170045 16 9 4.8 12.9 0.00 0.00 0.00 43 1010.6
20260505165945 16 57 4.8 12.9 0.00 0.00 0.00 43 1010.6
20260505165845 16 33 4.8 12.9 0.00 0.00 0.00 43 1010.6
20260505165745 16 25 4.8 16.1 0.00 0.00 0.00 43 1010.7
20260505165713 16 25 4.8 16.1 0.00 0.00 0.00 43 1010.7
20260505165647 16 10 6.4 16.1 0.00 0.00 0.00 43 1010.7
20260505165545 16 26 9.7 16.1 0.00 0.00 0.00 43 1010.7
20260505165445 16 39 6.4 9.7 0.00 0.00 0.00 43 1010.6
20260505165345 16 22 4.8 8.0 0.00 0.00 0.00 43 1010.7
20260505165245 16 9 4.8 14.5 0.00 0.00 0.00 43 1010.7
20260505165212 16 9 4.8 14.5 0.00 0.00 0.00 43 1010.7
20260505165144 16 9 6.4 14.5 0.00 0.00 0.00 43 1010.6
20260505165046 16 32 11.3 14.5 0.00 0.00 0.00 43 1010.6
20260505164946 16 355 4.8 14.5 0.00 0.00 0.00 43 1010.6
20260505164846 16 46 8.0 14.5 0.00 0.00 0.00 43 1010.6
20260505164746 16 5 9.7 12.9 0.00 0.00 0.00 43 1010.6
20260505164712 16 5 9.7 12.9 0.00 0.00 0.00 43 1010.6
20260505164645 16 54 8.0 12.9 0.00 0.00 0.00 43 1010.6
20260505164545 16 64 4.8 12.9 0.00 0.00 0.00 43 1010.6
20260505164445 16 38 4.8 11.3 0.00 0.00 0.00 43 1010.6
20260505164345 16 51 3.2 11.3 0.00 0.00 0.00 43 1010.6
20260505164244 16 23 4.8 12.9 0.00 0.00 0.00 43 1010.6
20260505164212 16 23 4.8 12.9 0.00 0.00 0.00 43 1010.6
20260505164144 16 39 8.0 11.3 0.00 0.00 0.00 43 1010.6
20260505164044 16 46 6.4 11.3 0.00 0.00 0.00 43 1010.6
20260505163945 16 10 4.8 6.4 0.00 0.00 0.00 43 1010.6
20260505163845 16 52 4.8 6.4 0.00 0.00 0.00 43 1010.6
20260505163745 16 30 8.0 16.1 0.00 0.00 0.00 43 1010.6
20260505163713 16 30 8.0 16.1 0.00 0.00 0.00 43 1010.6
20260505163645 16 38 12.9 16.1 0.00 0.00 0.00 43 1010.6
20260505163545 16 18 11.3 11.3 0.00 0.00 0.00 42 1010.6
20260505163445 16 44 4.8 9.7 0.00 0.00 0.00 42 1010.6
20260505163345 16 63 3.2 9.7 0.00 0.00 0.00 42 1010.6
20260505163245 16 350 6.4 11.3 0.00 0.00 0.00 42 1010.6
20260505163212 16 350 6.4 11.3 0.00 0.00 0.00 42 1010.6
20260505163145 16 34 8.0 11.3 0.00 0.00 0.00 42 1010.6
20260505163045 16 55 8.0 11.3 0.00 0.00 0.00 42 1010.7
20260505162945 16 53 8.0 11.3 0.00 0.00 0.00 42 1010.6
20260505162845 16 36 6.4 11.3 0.00 0.00 0.00 42 1010.7
20260505162745 16 26 6.4 16.1 0.00 0.00 0.00 42 1010.6
20260505162711 16 26 6.4 16.1 0.00 0.00 0.00 42 1010.6
20260505162645 16 39 4.8 16.1 0.00 0.00 0.00 42 1010.6
20260505162545 16 36 4.8 16.1 0.00 0.00 0.00 42 1010.6
20260505162444 16 5 4.8 16.1 0.00 0.00 0.00 42 1010.6
20260505162344 16 66 6.4 16.1 0.00 0.00 0.00 42 1010.6
20260505162246 16 42 4.8 11.3 0.00 0.00 0.00 42 1010.6
20260505162212 16 42 4.8 11.3 0.00 0.00 0.00 42 1010.6
20260505162146 16 9 3.2 9.7 0.00 0.00 0.00 42 1010.6
20260505162046 16 44 4.8 9.7 0.00 0.00 0.00 41 1010.6
20260505161945 16 78 4.8 9.7 0.00 0.00 0.00 41 1010.6
20260505161845 16 48 4.8 8.0 0.00 0.00 0.00 41 1010.6
20260505161745 16 51 4.8 14.5 0.00 0.00 0.00 41 1010.5
20260505161712 16 51 4.8 14.5 0.00 0.00 0.00 41 1010.5
20260505161644 16 360 4.8 14.5 0.00 0.00 0.00 41 1010.6
20260505161544 16 355 4.8 14.5 0.00 0.00 0.00 41 1010.5
20260505161444 16 12 6.4 14.5 0.00 0.00 0.00 41 1010.6
20260505161346 16 52 12.9 12.9 0.00 0.00 0.00 41 1010.6
20260505161246 16 350 8.0 16.1 0.00 0.00 0.00 41 1010.6
20260505161212 16 350 8.0 16.1 0.00 0.00 0.00 41 1010.6
20260505161146 16 89 9.7 16.1 0.00 0.00 0.00 41 1010.6
20260505161046 16 360 4.8 16.1 0.00 0.00 0.00 41 1010.6
20260505160946 16 56 16.1 16.1 0.00 0.00 0.00 41 1010.6
20260505160846 16 11 6.4 12.9 0.00 0.00 0.00 41 1010.6
20260505160746 16 12 11.3 16.1 0.00 0.00 0.00 41 1010.6
20260505160712 16 12 11.3 16.1 0.00 0.00 0.00 41 1010.6
20260505160645 16 45 8.0 16.1 0.00 0.00 0.00 41 1010.7
20260505160545 16 23 4.8 16.1 0.00 0.00 0.00 41 1010.6
20260505160445 16 12 4.8 16.1 0.00 0.00 0.00 41 1010.6
20260505160344 16 10 12.9 16.1 0.00 0.00 0.00 41 1010.7
20260505160244 16 336 9.7 14.5 0.00 0.00 0.00 41 1010.7
20260505160212 16 336 9.7 14.5 0.00 0.00 0.00 41 1010.7
20260505160144 16 350 8.0 12.9 0.00 0.00 0.00 40 1010.7
20260505153345 16 36 6.4 11.3 0.00 0.00 0.00 40 1010.9
20260505153245 16 38 11.3 16.1 0.00 0.00 0.00 40 1010.8
20260505153213 16 38 11.3 16.1 0.00 0.00 0.00 40 1010.8
20260505153144 16 46 3.2 14.5 0.00 0.00 0.00 40 1010.8
20260505153044 16 346 3.2 14.5 0.00 0.00 0.00 40 1010.8
20260505152944 16 92 11.3 14.5 0.00 0.00 0.00 40 1010.9
20260505152844 16 32 8.0 8.0 0.00 0.00 0.00 40 1010.8
20260505152745 16 51 6.4 16.1 0.00 0.00 0.00 40 1010.9
20260505152711 16 51 6.4 16.1 0.00 0.00 0.00 40 1010.9
20260505152645 16 355 6.4 16.1 0.00 0.00 0.00 41 1010.9
20260505152545 16 46 4.8 16.1 0.00 0.00 0.00 41 1010.9
20260505152445 16 78 6.4 16.1 0.00 0.00 0.00 41 1010.9
20260505152345 16 11 8.0 16.1 0.00 0.00 0.00 41 1010.9
20260505152244 16 68 4.8 16.1 0.00 0.00 0.00 41 1010.9
20260505152212 16 68 4.8 16.1 0.00 0.00 0.00 41 1010.9
20260505152144 16 54 12.9 16.1 0.00 0.00 0.00 41 1010.9
20260505152044 16 59 16.1 16.1 0.00 0.00 0.00 41 1010.9
20260505151944 16 11 4.8 16.1 0.00 0.00 0.00 41 1010.8
20260505151846 16 37 6.4 16.1 0.00 0.00 0.00 41 1010.8
20260505151746 16 32 6.4 14.5 0.00 0.00 0.00 41 1010.9
20260505151712 16 32 6.4 14.5 0.00 0.00 0.00 41 1010.9
20260505151645 16 50 6.4 14.5 0.00 0.00 0.00 41 1010.9
20260505151545 16 51 4.8 14.5 0.00 0.00 0.00 41 1010.9
20260505151445 16 54 9.7 14.5 0.00 0.00 0.00 41 1010.9
20260505151345 16 42 12.9 12.9 0.00 0.00 0.00 41 1010.8
20260505151245 16 17 11.3 17.7 0.00 0.00 0.00 41 1010.9
20260505151212 16 17 11.3 17.7 0.00 0.00 0.00 41 1010.9
20260505151144 16 42 6.4 17.7 0.00 0.00 0.00 41 1010.9
20260505151045 17 24 4.8 17.7 0.00 0.00 0.00 40 1010.9
20260505150945 17 45 17.7 17.7 0.00 0.00 0.00 40 1010.9
20260505150845 17 42 6.4 16.1 0.00 0.00 0.00 40 1010.9
20260505150745 17 351 9.7 12.9 0.00 0.00 0.00 39 1010.8
20260505150713 17 351 9.7 12.9 0.00 0.00 0.00 39 1010.8
20260505150645 17 360 4.8 12.9 0.00 0.00 0.00 38 1010.9
20260505150545 17 14 4.8 12.9 0.00 0.00 0.00 38 1010.9
20260505150445 17 42 4.8 11.3 0.00 0.00 0.00 38 1010.9
20260505150345 17 89 9.7 9.7 0.00 0.00 0.00 38 1010.9
20260505150244 17 17 4.8 14.5 0.00 0.00 0.00 38 1010.9
20260505150212 17 17 4.8 14.5 0.00 0.00 0.00 38 1010.9
20260505150144 17 59 14.5 14.5 0.00 0.00 0.00 38 1010.9
20260505140646 16 48 6.4 14.5 0.00 0.00 0.00 25 1011.2
20260505140546 16 58 11.3 14.5 0.00 0.00 0.00 25 1011.2
20260505140446 16 90 9.7 14.5 0.00 0.00 0.00 25 1011.2
20260505140345 16 73 9.7 11.3 0.00 0.00 0.00 25 1011.2
20260505140245 16 70 9.7 16.1 0.00 0.00 0.00 25 1011.2
20260505140211 16 70 9.7 16.1 0.00 0.00 0.00 25 1011.2
20260505140145 16 82 6.4 16.1 0.00 0.00 0.00 25 1011.2
20260505130246 15 39 8.0 14.5 0.00 0.00 0.00 2 1011.4
20260505130212 15 39 8.0 14.5 0.00 0.00 0.00 2 1011.4
20260505130145 15 47 1.6 11.3 0.00 0.00 0.00 3 1011.4
20260505124945 15 19 6.4 16.1 0.00 0.00 0.00 100 1011.3
20260505124845 15 18 4.8 16.1 0.00 0.00 0.00 100 1011.3
20260505124745 15 31 3.2 16.1 0.00 0.00 0.00 100 1011.3
20260505124713 15 31 3.2 16.1 0.00 0.00 0.00 100 1011.3
20260505124644 15 32 4.8 16.1 0.00 0.00 0.00 100 1011.3
20260505124544 15 28 4.8 16.1 0.00 0.00 0.00 100 1011.3
20260505124444 15 27 4.8 16.1 0.00 0.00 0.00 100 1011.4
20260505124344 15 17 6.4 16.1 0.00 0.00 0.00 100 1011.3